IW9BHU-13 Weather Reports


Display with metric or nautical units.
time (UTC)temp
F
wind
direction
speed
MPH
gust
MPH
rain 1hr
in
rain 24hr
in
rain mn
in
humidity
%
barometer
mb
20260507093834 78 200 7.0 15.0 0.00 0.00 0.00 35 1008.4
20260507093722 78 202 7.0 15.0 0.00 0.00 0.00 35 1008.4
20260507093627 78 203 7.0 15.0 0.00 0.00 0.00 35 1008.4
20260507093526 78 205 7.0 15.0 0.00 0.00 0.00 34 1008.4
20260507093418 78 206 7.0 14.0 0.00 0.00 0.00 35 1008.5
20260507093324 78 206 7.0 16.0 0.00 0.00 0.00 35 1008.5
20260507093228 78 210 7.0 16.0 0.00 0.00 0.00 35 1008.5
20260507093129 78 205 7.0 16.0 0.00 0.00 0.00 35 1008.5
20260507093015 78 206 7.0 16.0 0.00 0.00 0.00 35 1008.4
20260507092904 78 210 7.0 16.0 0.00 0.00 0.00 35 1008.4
20260507092804 78 209 7.0 19.0 0.00 0.00 0.00 35 1008.4
20260507092704 78 208 7.0 19.0 0.00 0.00 0.00 35 1008.5
20260507092604 78 206 7.0 19.0 0.00 0.00 0.00 35 1008.4
20260507092505 78 204 7.0 19.0 0.00 0.00 0.00 35 1008.4
20260507092404 78 205 7.0 19.0 0.00 0.00 0.00 35 1008.4
20260507092306 78 205 6.0 19.0 0.00 0.00 0.00 35 1008.4
20260507092204 78 205 6.0 19.0 0.00 0.00 0.00 35 1008.4
20260507092106 78 208 6.0 19.0 0.00 0.00 0.00 35 1008.4
20260507092007 78 210 6.0 19.0 0.00 0.00 0.00 35 1008.4
20260507091906 78 208 6.0 19.0 0.00 0.00 0.00 35 1008.4
20260507091808 78 206 6.0 18.0 0.00 0.00 0.00 35 1008.4
20260507091705 78 207 6.0 18.0 0.00 0.00 0.00 35 1008.4
20260507091606 78 209 6.0 13.0 0.00 0.00 0.00 36 1008.3
20260507091504 78 208 6.0 13.0 0.00 0.00 0.00 36 1008.3
20260507091403 78 209 6.0 13.0 0.00 0.00 0.00 35 1008.4
20260507091304 78 207 6.0 16.0 0.00 0.00 0.00 35 1008.4
20260507091204 78 206 6.0 16.0 0.00 0.00 0.00 35 1008.4
20260507091104 78 201 6.0 16.0 0.00 0.00 0.00 35 1008.4
20260507091005 78 200 6.0 16.0 0.00 0.00 0.00 35 1008.4
20260507090904 78 198 6.0 16.0 0.00 0.00 0.00 36 1008.5
20260507090804 78 201 6.0 16.0 0.00 0.00 0.00 36 1008.5
20260507090704 78 202 6.0 16.0 0.00 0.00 0.00 36 1008.5
20260507090606 78 201 6.0 16.0 0.00 0.00 0.00 36 1008.5
20260507090504 78 204 6.0 16.0 0.00 0.00 0.00 36 1008.5
20260507090404 77 204 6.0 16.0 0.00 0.00 0.00 37 1008.5
20260507090306 77 204 6.0 15.0 0.00 0.00 0.00 37 1008.5
20260507090206 77 201 6.0 18.0 0.00 0.00 0.00 37 1008.5
20260507090105 77 205 6.0 18.0 0.00 0.00 0.00 37 1008.6
20260507090005 78 203 6.0 18.0 0.00 0.00 0.00 37 1008.6
20260507085904 77 202 6.0 18.0 0.00 0.00 0.00 38 1008.6
20260507085804 77 199 6.0 18.0 0.00 0.00 0.00 38 1008.6
20260507085705 77 201 6.0 18.0 0.00 0.00 0.00 38 1008.6
20260507085605 77 202 6.0 18.0 0.00 0.00 0.00 38 1008.6
20260507085505 77 202 6.0 18.0 0.00 0.00 0.00 38 1008.7
20260507085405 77 202 6.0 18.0 0.00 0.00 0.00 38 1008.7
20260507085306 77 204 6.0 18.0 0.00 0.00 0.00 38 1008.6
20260507085205 77 203 5.0 12.0 0.00 0.00 0.00 38 1008.6
20260507085105 77 202 5.0 12.0 0.00 0.00 0.00 38 1008.7
20260507085004 77 202 5.0 12.0 0.00 0.00 0.00 38 1008.7
20260507084914 77 202 5.0 12.0 0.00 0.00 0.00 38 1008.7
20260507084806 77 204 5.0 12.0 0.00 0.00 0.00 38 1008.8
20260507084706 77 204 5.0 12.0 0.00 0.00 0.00 38 1008.8
20260507084605 77 201 5.0 12.0 0.00 0.00 0.00 38 1008.8
20260507084504 77 203 5.0 12.0 0.00 0.00 0.00 39 1008.9
20260507084404 77 200 5.0 11.0 0.00 0.00 0.00 39 1008.9
20260507084305 77 199 5.0 12.0 0.00 0.00 0.00 39 1008.8
20260507084205 77 201 5.0 12.0 0.00 0.00 0.00 39 1008.9
20260507084105 77 201 5.0 12.0 0.00 0.00 0.00 40 1008.9
20260507084005 77 201 5.0 12.0 0.00 0.00 0.00 40 1009.0
20260507083905 77 204 5.0 12.0 0.00 0.00 0.00 40 1009.0
20260507083805 77 205 5.0 12.0 0.00 0.00 0.00 39 1008.9
20260507083705 77 203 5.0 12.0 0.00 0.00 0.00 39 1008.8
20260507083606 76 202 5.0 12.0 0.00 0.00 0.00 39 1008.8
20260507083507 76 200 5.0 14.0 0.00 0.00 0.00 39 1008.8
20260507083406 76 202 5.0 14.0 0.00 0.00 0.00 39 1008.8
20260507083304 76 202 6.0 14.0 0.00 0.00 0.00 39 1008.9
20260507083205 76 204 6.0 14.0 0.00 0.00 0.00 40 1008.9
20260507083108 76 205 6.0 14.0 0.00 0.00 0.00 40 1008.9
20260507083005 76 205 6.0 14.0 0.00 0.00 0.00 40 1009.0
20260507082904 76 202 6.0 14.0 0.00 0.00 0.00 41 1009.0
20260507082805 76 200 6.0 14.0 0.00 0.00 0.00 41 1009.0
20260507082704 76 200 6.0 14.0 0.00 0.00 0.00 41 1008.9
20260507082605 76 201 6.0 14.0 0.00 0.00 0.00 40 1008.9
20260507082505 76 199 6.0 13.0 0.00 0.00 0.00 40 1008.9
20260507082405 76 199 6.0 13.0 0.00 0.00 0.00 41 1008.9
20260507082306 76 199 6.0 13.0 0.00 0.00 0.00 42 1008.9
20260507082205 76 199 6.0 13.0 0.00 0.00 0.00 42 1009.0
20260507082109 76 198 6.0 13.0 0.00 0.00 0.00 43 1009.0
20260507082014 76 200 6.0 13.0 0.00 0.00 0.00 43 1009.0
20260507081906 75 201 6.0 13.0 0.00 0.00 0.00 43 1009.1
20260507081805 75 199 6.0 13.0 0.00 0.00 0.00 44 1009.1
20260507081706 75 201 6.0 13.0 0.00 0.00 0.00 44 1009.0
20260507081615 75 197 6.0 13.0 0.00 0.00 0.00 44 1009.0
20260507081504 75 198 5.0 13.0 0.00 0.00 0.00 44 1009.1
20260507081405 75 196 5.0 13.0 0.00 0.00 0.00 44 1009.1
20260507081305 75 194 5.0 13.0 0.00 0.00 0.00 44 1009.1
20260507081205 76 193 5.0 13.0 0.00 0.00 0.00 44 1009.1
20260507081105 76 192 5.0 11.0 0.00 0.00 0.00 44 1009.1
20260507081005 75 191 5.0 11.0 0.00 0.00 0.00 44 1009.1
20260507080904 75 192 5.0 11.0 0.00 0.00 0.00 44 1009.2
20260507080804 76 195 5.0 11.0 0.00 0.00 0.00 44 1009.2
20260507080704 76 193 5.0 11.0 0.00 0.00 0.00 44 1009.2
20260507080606 76 201 5.0 11.0 0.00 0.00 0.00 44 1009.2
20260507080511 76 202 5.0 11.0 0.00 0.00 0.00 44 1009.2
20260507080405 76 202 5.0 11.0 0.00 0.00 0.00 43 1009.2
20260507080311 76 204 5.0 11.0 0.00 0.00 0.00 43 1009.2
20260507080006 76 202 5.0 13.0 0.00 0.00 0.00 43 1009.2
20260507075905 76 201 5.0 13.0 0.00 0.00 0.00 43 1009.2
20260507075805 76 200 5.0 13.0 0.00 0.00 0.00 42 1009.4
20260507075704 76 200 5.0 13.0 0.00 0.00 0.00 42 1009.4
20260507075605 76 200 5.0 13.0 0.00 0.00 0.00 42 1009.3
20260507075504 76 203 5.0 13.0 0.00 0.00 0.00 42 1009.3
20260507075405 76 203 5.0 13.0 0.00 0.00 0.00 41 1009.3
20260507075307 76 205 5.0 13.0 0.00 0.00 0.00 42 1009.4
20260507075205 76 203 5.0 13.0 0.00 0.00 0.00 41 1009.4
20260507075105 76 206 5.0 11.0 0.00 0.00 0.00 41 1009.4
20260507075007 76 208 5.0 10.0 0.00 0.00 0.00 41 1009.4
20260507074905 76 209 5.0 10.0 0.00 0.00 0.00 40 1009.4
20260507074806 76 209 5.0 10.0 0.00 0.00 0.00 40 1009.4
20260507074705 76 211 5.0 10.0 0.00 0.00 0.00 40 1009.4
20260507074605 76 208 5.0 11.0 0.00 0.00 0.00 40 1009.5
20260507074505 76 204 5.0 11.0 0.00 0.00 0.00 40 1009.5
20260507074404 76 204 5.0 11.0 0.00 0.00 0.00 41 1009.5
20260507074305 76 203 5.0 11.0 0.00 0.00 0.00 40 1009.5
20260507074204 75 205 5.0 11.0 0.00 0.00 0.00 40 1009.5
20260507074115 75 206 5.0 11.0 0.00 0.00 0.00 40 1009.5
20260507074004 75 205 5.0 11.0 0.00 0.00 0.00 40 1009.6
20260507073905 75 204 4.0 11.0 0.00 0.00 0.00 40 1009.6
20260507073805 75 204 4.0 11.0 0.00 0.00 0.00 40 1009.6
20260507073704 75 202 4.0 11.0 0.00 0.00 0.00 40 1009.6
20260507073604 75 203 4.0 11.0 0.00 0.00 0.00 40 1009.7
20260507073505 75 202 4.0 11.0 0.00 0.00 0.00 40 1009.8
20260507073405 75 201 4.0 10.0 0.00 0.00 0.00 41 1009.8
20260507073306 75 202 4.0 10.0 0.00 0.00 0.00 41 1009.8
20260507073205 75 203 4.0 10.0 0.00 0.00 0.00 41 1009.8
20260507073108 75 201 4.0 10.0 0.00 0.00 0.00 41 1009.8
20260507073005 75 200 4.0 10.0 0.00 0.00 0.00 41 1009.9
20260507072904 75 199 4.0 10.0 0.00 0.00 0.00 41 1009.9
20260507072804 75 200 4.0 11.0 0.00 0.00 0.00 42 1009.9
20260507072704 75 199 4.0 11.0 0.00 0.00 0.00 42 1009.9
20260507072605 74 201 4.0 11.0 0.00 0.00 0.00 42 1010.0
20260507072504 74 202 4.0 11.0 0.00 0.00 0.00 42 1010.0
20260507072404 74 202 4.0 11.0 0.00 0.00 0.00 43 1010.0
20260507072306 74 201 4.0 11.0 0.00 0.00 0.00 43 1009.9
20260507072204 74 198 4.0 11.0 0.00 0.00 0.00 43 1010.1
20260507072104 74 195 4.0 11.0 0.00 0.00 0.00 43 1010.1
20260507072006 74 196 4.0 11.0 0.00 0.00 0.00 43 1010.1
20260507071910 74 197 4.0 11.0 0.00 0.00 0.00 43 1010.1
20260507071810 74 200 4.0 10.0 0.00 0.00 0.00 43 1010.0
20260507071705 74 199 4.0 10.0 0.00 0.00 0.00 43 1010.1
20260507071605 74 197 4.0 10.0 0.00 0.00 0.00 43 1010.1
20260507071504 74 200 4.0 10.0 0.00 0.00 0.00 44 1010.0
20260507071404 74 200 4.0 10.0 0.00 0.00 0.00 43 1010.0
20260507071304 74 198 4.0 12.0 0.00 0.00 0.00 44 1010.0
20260507071204 73 197 4.0 12.0 0.00 0.00 0.00 44 1010.0
20260507071104 73 197 4.0 12.0 0.00 0.00 0.00 44 1010.0
20260507071004 73 198 4.0 12.0 0.00 0.00 0.00 44 1010.0
20260507070904 73 196 4.0 12.0 0.00 0.00 0.00 44 1010.0
20260507070804 73 192 4.0 12.0 0.00 0.00 0.00 44 1010.0
20260507070709 73 192 4.0 12.0 0.00 0.00 0.00 45 1009.9
20260507070604 73 192 3.0 12.0 0.00 0.00 0.00 45 1009.9
20260507070505 73 191 3.0 12.0 0.00 0.00 0.00 45 1010.0
20260507070405 73 188 3.0 12.0 0.00 0.00 0.00 45 1010.1
20260507070310 73 190 3.0 11.0 0.00 0.00 0.00 45 1010.1
20260507070205 73 193 3.0 11.0 0.00 0.00 0.00 45 1010.0
20260507070104 72 194 3.0 11.0 0.00 0.00 0.00 45 1010.0
20260507070009 72 190 3.0 11.0 0.00 0.00 0.00 45 1010.0
20260507065904 72 192 3.0 11.0 0.00 0.00 0.00 47 1010.1
20260507065804 72 195 3.0 11.0 0.00 0.00 0.00 47 1010.1
20260507065704 72 197 3.0 11.0 0.00 0.00 0.00 47 1010.1
20260507065604 71 200 3.0 11.0 0.00 0.00 0.00 47 1010.1
20260507065504 71 202 3.0 11.0 0.00 0.00 0.00 47 1010.2
20260507065404 71 205 3.0 11.0 0.00 0.00 0.00 47 1010.2
20260507065306 71 203 3.0 9.0 0.00 0.00 0.00 48 1010.2
20260507065203 70 200 3.0 9.0 0.00 0.00 0.00 49 1010.3
20260507065106 70 208 3.0 9.0 0.00 0.00 0.00 49 1010.2
20260507065004 70 220 3.0 9.0 0.00 0.00 0.00 49 1010.2
20260507064904 70 220 3.0 9.0 0.00 0.00 0.00 51 1010.3
20260507064804 69 225 3.0 10.0 0.00 0.00 0.00 51 1010.3
20260507064704 69 229 3.0 10.0 0.00 0.00 0.00 52 1010.4
20260507064605 69 228 3.0 10.0 0.00 0.00 0.00 54 1010.6
20260507064504 68 236 3.0 10.0 0.00 0.00 0.00 56 1010.6
20260507064404 68 251 2.0 10.0 0.00 0.00 0.00 60 1010.5
20260507064304 68 251 2.0 10.0 0.00 0.00 0.00 59 1010.5
20260507064204 68 250 2.0 10.0 0.00 0.00 0.00 62 1010.5
20260507064104 68 248 2.0 10.0 0.00 0.00 0.00 59 1010.6
20260507064004 68 242 2.0 10.0 0.00 0.00 0.00 58 1010.6
20260507063904 67 245 2.0 10.0 0.00 0.00 0.00 62 1010.6
20260507063703 67 249 2.0 7.0 0.00 0.00 0.00 62 1010.6
20260507063607 67 262 2.0 7.0 0.00 0.00 0.00 65 1010.6
20260507063504 67 260 2.0 7.0 0.00 0.00 0.00 64 1010.6
20260507063405 67 258 2.0 7.0 0.00 0.00 0.00 58 1010.6
20260507063304 66 275 2.0 7.0 0.00 0.00 0.00 58 1010.6
20260507063206 66 303 2.0 7.0 0.00 0.00 0.00 58 1010.6
20260507063105 66 326 2.0 6.0 0.00 0.00 0.00 60 1010.5
20260507063004 66 333 2.0 6.0 0.00 0.00 0.00 64 1010.5
20260507062904 66 343 2.0 4.0 0.00 0.00 0.00 68 1010.6
20260507062804 66 340 2.0 4.0 0.00 0.00 0.00 69 1010.6
20260507062704 66 339 2.0 4.0 0.00 0.00 0.00 68 1010.6
20260507062604 66 343 2.0 4.0 0.00 0.00 0.00 69 1010.6
20260507062504 66 346 2.0 4.0 0.00 0.00 0.00 69 1010.6
20260507062405 66 351 2.0 4.0 0.00 0.00 0.00 69 1010.6
20260507062306 66 360 1.0 4.0 0.00 0.00 0.00 69 1010.5
20260507062205 66 10 1.0 4.0 0.00 0.00 0.00 68 1010.5
20260507062106 66 23 1.0 4.0 0.00 0.00 0.00 69 1010.6
20260507062006 66 38 1.0 4.0 0.00 0.00 0.00 69 1010.6
20260507061909 66 48 1.0 4.0 0.00 0.00 0.00 66 1010.5
20260507061811 65 54 1.0 4.0 0.00 0.00 0.00 66 1010.7
20260507061706 65 55 1.0 4.0 0.00 0.00 0.00 70 1010.7
20260507061505 65 63 1.0 4.0 0.00 0.00 0.00 71 1010.7
20260507061405 65 65 1.0 4.0 0.00 0.00 0.00 70 1010.7
20260507061305 65 70 1.0 4.0 0.00 0.00 0.00 70 1010.8
20260507061205 65 73 1.0 4.0 0.00 0.00 0.00 71 1010.8
20260507061104 65 77 1.0 4.0 0.00 0.00 0.00 71 1010.8
20260507061005 65 83 1.0 4.0 0.00 0.00 0.00 71 1010.8
20260507060905 65 84 1.0 4.0 0.00 0.00 0.00 71 1010.8
20260507060806 65 85 1.0 4.0 0.00 0.00 0.00 72 1010.7
20260507060705 65 87 1.0 4.0 0.00 0.00 0.00 72 1010.7
20260507060606 65 88 1.0 4.0 0.00 0.00 0.00 72 1010.7
20260507060506 65 91 1.0 3.0 0.00 0.00 0.00 73 1010.6
20260507060406 65 92 1.0 3.0 0.00 0.00 0.00 73 1010.6
20260507060310 65 91 1.0 3.0 0.00 0.00 0.00 73 1010.7
20260507060205 65 90 1.0 3.0 0.00 0.00 0.00 73 1010.7
20260507060105 65 90 0.0 3.0 0.00 0.00 0.00 73 1010.7
20260507060005 65 89 0.0 3.0 0.00 0.00 0.00 73 1010.7
20260507055904 65 89 0.0 3.0 0.00 0.00 0.00 73 1010.7
20260507055805 65 88 0.0 3.0 0.00 0.00 0.00 73 1010.7
20260507055704 65 89 0.0 3.0 0.00 0.00 0.00 73 1010.7
20260507055604 65 95 0.0 3.0 0.00 0.00 0.00 73 1010.7
20260507055505 65 96 0.0 2.0 0.00 0.00 0.00 73 1010.6
20260507055408 65 96 0.0 1.0 0.00 0.00 0.00 73 1010.6
20260507055306 65 96 1.0 2.0 0.00 0.00 0.00 73 1010.7
20260507055204 65 98 1.0 2.0 0.00 0.00 0.00 74 1010.7
20260507055105 65 88 1.0 4.0 0.00 0.00 0.00 73 1010.7
20260507055012 65 88 1.0 4.0 0.00 0.00 0.00 74 1010.7
20260507054906 65 92 1.0 4.0 0.00 0.00 0.00 74 1010.7
20260507054804 65 107 1.0 4.0 0.00 0.00 0.00 74 1010.7
20260507054705 65 112 1.0 4.0 0.00 0.00 0.00 74 1010.7
20260507054605 65 118 1.0 4.0 0.00 0.00 0.00 74 1010.7
20260507054505 65 126 1.0 4.0 0.00 0.00 0.00 74 1010.7
20260507054404 65 140 1.0 4.0 0.00 0.00 0.00 74 1010.6
20260507054305 65 149 1.0 4.0 0.00 0.00 0.00 74 1010.6
20260507054204 65 159 1.0 4.0 0.00 0.00 0.00 74 1010.6
20260507054104 65 177 1.0 3.0 0.00 0.00 0.00 74 1010.6
20260507054004 65 178 1.0 3.0 0.00 0.00 0.00 74 1010.7
20260507053904 65 183 1.0 4.0 0.00 0.00 0.00 73 1010.8
20260507053804 65 196 1.0 4.0 0.00 0.00 0.00 74 1010.8
20260507053704 65 205 1.0 4.0 0.00 0.00 0.00 74 1010.7
20260507053604 65 199 1.0 4.0 0.00 0.00 0.00 74 1010.7
20260507053506 65 192 1.0 4.0 0.00 0.00 0.00 74 1010.7
20260507053405 65 187 1.0 4.0 0.00 0.00 0.00 74 1010.7
20260507053305 65 183 1.0 4.0 0.00 0.00 0.00 74 1010.7
20260507053206 65 181 1.0 5.0 0.00 0.00 0.00 74 1010.7
20260507053105 65 181 1.0 5.0 0.00 0.00 0.00 75 1010.7
20260507053005 65 180 1.0 5.0 0.00 0.00 0.00 75 1010.8
20260507052905 65 180 1.0 5.0 0.00 0.00 0.00 75 1010.8
20260507052805 65 176 1.0 5.0 0.00 0.00 0.00 75 1010.8
20260507052705 65 171 1.0 5.0 0.00 0.00 0.00 75 1010.7
20260507052605 65 169 1.0 5.0 0.00 0.00 0.00 75 1010.7
20260507052505 65 170 1.0 5.0 0.00 0.00 0.00 75 1010.7
20260507052405 64 167 1.0 5.0 0.00 0.00 0.00 75 1010.7
20260507052306 64 167 1.0 5.0 0.00 0.00 0.00 75 1010.7
20260507052205 64 167 1.0 4.0 0.00 0.00 0.00 75 1010.7
20260507052104 64 167 1.0 4.0 0.00 0.00 0.00 75 1010.8
20260507052005 64 173 1.0 4.0 0.00 0.00 0.00 75 1010.8
20260507051905 64 167 1.0 4.0 0.00 0.00 0.00 76 1010.9
20260507051806 64 164 1.0 4.0 0.00 0.00 0.00 76 1010.9
20260507051706 64 165 1.0 4.0 0.00 0.00 0.00 76 1010.9
20260507051607 64 169 1.0 4.0 0.00 0.00 0.00 76 1011.0
20260507051504 64 178 2.0 4.0 0.00 0.00 0.00 76 1011.0
20260507051404 64 189 2.0 4.0 0.00 0.00 0.00 76 1010.9
20260507051304 64 190 2.0 4.0 0.00 0.00 0.00 76 1010.9
20260507051204 64 185 2.0 7.0 0.00 0.00 0.00 76 1010.9
20260507051007 64 175 2.0 7.0 0.00 0.00 0.00 76 1010.9
20260507050904 64 172 2.0 7.0 0.00 0.00 0.00 76 1010.9
20260507050804 64 168 2.0 7.0 0.00 0.00 0.00 76 1011.0
20260507050704 64 169 2.0 7.0 0.00 0.00 0.00 76 1011.0
20260507050604 64 170 2.0 7.0 0.00 0.00 0.00 77 1011.0
20260507050505 64 169 2.0 7.0 0.00 0.00 0.00 77 1011.0
20260507050406 64 167 2.0 7.0 0.00 0.00 0.00 77 1011.0
20260507050306 64 169 2.0 7.0 0.00 0.00 0.00 77 1010.9
20260507050205 64 172 2.0 6.0 0.00 0.00 0.00 77 1010.9
20260507050105 64 174 2.0 6.0 0.00 0.00 0.00 77 1010.9
20260507050005 63 171 2.0 6.0 0.00 0.00 0.00 77 1010.9
20260507045904 63 175 2.0 6.0 0.00 0.00 0.00 78 1010.9
20260507045804 63 178 2.0 5.0 0.00 0.00 0.00 78 1010.9
20260507045704 63 178 2.0 8.0 0.00 0.00 0.00 78 1010.9
20260507045604 63 177 2.0 8.0 0.00 0.00 0.00 79 1010.9
20260507045505 63 179 2.0 8.0 0.00 0.00 0.00 79 1010.8
20260507045404 63 184 2.0 8.0 0.00 0.00 0.00 79 1010.8
20260507045306 63 183 2.0 8.0 0.00 0.00 0.00 79 1010.9
20260507045204 63 184 2.0 8.0 0.00 0.00 0.00 79 1010.9
20260507045104 63 190 2.0 8.0 0.00 0.00 0.00 79 1010.9
20260507045006 63 189 2.0 8.0 0.00 0.00 0.00 79 1011.0
20260507044904 63 186 2.0 8.0 0.00 0.00 0.00 79 1011.0
20260507044806 63 185 2.0 8.0 0.00 0.00 0.00 80 1011.0
20260507044705 63 203 2.0 6.0 0.00 0.00 0.00 80 1011.0
20260507044605 63 217 2.0 5.0 0.00 0.00 0.00 80 1011.1
20260507044505 63 171 2.0 5.0 0.00 0.00 0.00 80 1011.1
20260507044405 63 154 2.0 5.0 0.00 0.00 0.00 80 1011.1
20260507044304 63 153 2.0 5.0 0.00 0.00 0.00 80 1011.1
20260507044204 63 112 2.0 5.0 0.00 0.00 0.00 80 1011.2
20260507044104 63 85 2.0 5.0 0.00 0.00 0.00 80 1011.2
20260507044004 63 29 2.0 5.0 0.00 0.00 0.00 80 1011.2
20260507043904 63 336 2.0 5.0 0.00 0.00 0.00 80 1011.2
20260507043804 63 336 2.0 5.0 0.00 0.00 0.00 80 1011.1
20260507043704 64 18 2.0 5.0 0.00 0.00 0.00 80 1011.1
20260507043604 64 349 2.0 5.0 0.00 0.00 0.00 80 1011.1
20260507043505 64 327 2.0 5.0 0.00 0.00 0.00 80 1011.1
20260507043404 64 329 2.0 5.0 0.00 0.00 0.00 80 1011.1
20260507043305 64 325 2.0 5.0 0.00 0.00 0.00 80 1011.0
20260507043205 64 297 2.0 5.0 0.00 0.00 0.00 79 1011.1
20260507043105 64 265 2.0 4.0 0.00 0.00 0.00 79 1011.1
20260507043004 64 207 2.0 4.0 0.00 0.00 0.00 79 1011.1
20260507042905 64 191 2.0 4.0 0.00 0.00 0.00 79 1011.1
20260507042804 64 189 2.0 5.0 0.00 0.00 0.00 79 1011.1
20260507042704 64 188 1.0 5.0 0.00 0.00 0.00 79 1011.2
20260507042604 64 180 1.0 5.0 0.00 0.00 0.00 79 1011.2
20260507042504 64 173 1.0 5.0 0.00 0.00 0.00 79 1011.2
20260507042404 64 173 1.0 5.0 0.00 0.00 0.00 78 1011.2
20260507042306 64 171 1.0 5.0 0.00 0.00 0.00 77 1011.2
20260507042204 64 166 1.0 5.0 0.00 0.00 0.00 77 1011.1
20260507042104 64 168 1.0 5.0 0.00 0.00 0.00 77 1011.1
20260507042005 64 160 1.0 5.0 0.00 0.00 0.00 76 1011.1
20260507041905 64 151 1.0 5.0 0.00 0.00 0.00 76 1011.1
20260507041807 64 151 1.0 4.0 0.00 0.00 0.00 76 1011.1
20260507041705 64 146 1.0 4.0 0.00 0.00 0.00 76 1011.1
20260507041605 64 141 1.0 4.0 0.00 0.00 0.00 76 1011.1
20260507041504 64 139 1.0 4.0 0.00 0.00 0.00 76 1011.1
20260507041404 64 138 1.0 3.0 0.00 0.00 0.00 76 1011.2
20260507041304 64 146 1.0 3.0 0.00 0.00 0.00 76 1011.2
20260507041204 64 182 1.0 4.0 0.00 0.00 0.00 75 1011.2
20260507041104 64 179 1.0 4.0 0.00 0.00 0.00 75 1011.2
20260507041004 64 184 1.0 4.0 0.00 0.00 0.00 75 1011.2
20260507040904 64 194 1.0 6.0 0.00 0.00 0.00 75 1011.3
20260507040804 64 166 1.0 6.0 0.00 0.00 0.00 75 1011.3
20260507040704 64 153 1.0 6.0 0.00 0.00 0.00 75 1011.2
20260507040604 64 151 1.0 6.0 0.00 0.00 0.00 75 1011.2
20260507040504 64 148 1.0 6.0 0.00 0.00 0.00 75 1011.2
20260507040403 64 138 1.0 6.0 0.00 0.00 0.00 75 1011.2
20260507040206 64 118 1.0 6.0 0.00 0.00 0.00 76 1011.2
20260507040105 64 108 1.0 6.0 0.00 0.00 0.00 76 1011.2
20260507040004 64 100 1.0 6.0 0.00 0.00 0.00 76 1011.2
20260507035820 64 94 1.0 5.0 0.00 0.00 0.00 76 1011.2
20260507035704 64 75 1.0 4.0 0.00 0.00 0.00 77 1011.1
20260507035604 64 68 1.0 4.0 0.00 0.00 0.00 77 1011.1
20260507035504 64 66 1.0 4.0 0.00 0.00 0.00 77 1011.1
20260507035404 64 67 1.0 4.0 0.00 0.00 0.00 76 1011.0
20260507035306 64 67 0.0 4.0 0.00 0.00 0.00 76 1011.0
20260507035204 64 71 0.0 4.0 0.00 0.00 0.00 76 1011.0
20260507035104 64 75 0.0 4.0 0.00 0.00 0.00 76 1010.9
20260507035005 64 78 0.0 4.0 0.00 0.00 0.00 75 1010.9
20260507034908 64 79 0.0 4.0 0.00 0.00 0.00 73 1010.9
20260507034804 64 81 0.0 4.0 0.00 0.00 0.00 72 1010.9
20260507034706 64 104 0.0 4.0 0.00 0.00 0.00 71 1010.9
20260507034604 64 202 0.0 2.0 0.00 0.00 0.00 71 1010.9
20260507034504 64 202 0.0 2.0 0.00 0.00 0.00 72 1010.9
20260507034404 64 202 0.0 2.0 0.00 0.00 0.00 71 1010.9
20260507034304 64 202 0.0 2.0 0.00 0.00 0.00 71 1010.9
20260507034204 64 202 0.0 2.0 0.00 0.00 0.00 72 1010.9
20260507034104 64 202 0.0 1.0 0.00 0.00 0.00 73 1010.8
20260507034004 64 202 0.0 1.0 0.00 0.00 0.00 72 1010.8
20260507033903 64 202 0.0 1.0 0.00 0.00 0.00 71 1010.8
20260507033804 64 202 0.0 1.0 0.00 0.00 0.00 71 1010.8
20260507033704 64 202 0.0 1.0 0.00 0.00 0.00 71 1010.8
20260507033604 64 202 0.0 1.0 0.00 0.00 0.00 71 1010.8
20260507033504 64 203 0.0 1.0 0.00 0.00 0.00 70 1010.8
20260507033405 64 200 0.0 3.0 0.00 0.00 0.00 70 1010.8
20260507033304 64 198 0.0 3.0 0.00 0.00 0.00 70 1010.9
20260507033205 64 196 0.0 3.0 0.00 0.00 0.00 71 1010.9
20260507033104 64 195 0.0 3.0 0.00 0.00 0.00 71 1010.9
20260507033004 64 195 0.0 3.0 0.00 0.00 0.00 72 1010.8
20260507032904 64 195 0.0 3.0 0.00 0.00 0.00 72 1010.8
20260507032804 64 195 0.0 3.0 0.00 0.00 0.00 73 1010.9
20260507032703 65 194 0.0 3.0 0.00 0.00 0.00 73 1010.9
20260507032604 65 194 0.0 3.0 0.00 0.00 0.00 73 1010.9
20260507032505 65 193 0.0 3.0 0.00 0.00 0.00 73 1010.8
20260507032404 65 189 0.0 2.0 0.00 0.00 0.00 73 1010.8
20260507032306 65 185 0.0 2.0 0.00 0.00 0.00 73 1010.9
20260507032204 65 183 0.0 2.0 0.00 0.00 0.00 69 1010.9
20260507032104 64 193 0.0 2.0 0.00 0.00 0.00 67 1010.7
20260507032003 64 193 0.0 2.0 0.00 0.00 0.00 67 1010.7
20260507031905 64 193 0.0 2.0 0.00 0.00 0.00 67 1010.7
20260507031805 64 193 0.0 2.0 0.00 0.00 0.00 67 1010.7
20260507031704 64 197 0.0 2.0 0.00 0.00 0.00 67 1010.8
20260507031605 64 198 0.0 2.0 0.00 0.00 0.00 67 1010.8
20260507031504 64 202 0.0 2.0 0.00 0.00 0.00 67 1010.8
20260507031404 64 203 0.0 2.0 0.00 0.00 0.00 67 1010.8
20260507031304 64 206 0.0 2.0 0.00 0.00 0.00 67 1010.8
20260507031205 64 214 0.0 3.0 0.00 0.00 0.00 67 1010.8
20260507031104 64 213 0.0 3.0 0.00 0.00 0.00 68 1010.8
20260507031005 64 212 0.0 3.0 0.00 0.00 0.00 68 1010.8
20260507030905 64 210 0.0 3.0 0.00 0.00 0.00 68 1010.8
20260507030805 64 208 0.0 3.0 0.00 0.00 0.00 68 1010.8
20260507030704 64 203 1.0 3.0 0.00 0.00 0.00 68 1010.8
20260507030604 64 200 1.0 3.0 0.00 0.00 0.00 69 1010.8
20260507030505 64 194 1.0 3.0 0.00 0.00 0.00 69 1010.9
20260507030405 64 190 1.0 3.0 0.00 0.00 0.00 69 1010.9
20260507030306 64 187 1.0 3.0 0.00 0.00 0.00 70 1010.9
20260507030204 64 180 1.0 3.0 0.00 0.00 0.00 70 1010.8
20260507030105 64 179 1.0 3.0 0.00 0.00 0.00 70 1010.8
20260507030005 64 181 1.0 3.0 0.00 0.00 0.00 71 1010.8
20260507025905 64 184 1.0 3.0 0.00 0.00 0.00 71 1010.8
20260507025804 64 185 1.0 3.0 0.00 0.00 0.00 71 1010.8
20260507025704 64 189 1.0 3.0 0.00 0.00 0.00 71 1010.7
20260507025604 64 194 1.0 3.0 0.00 0.00 0.00 71 1010.7
20260507025505 64 196 1.0 3.0 0.00 0.00 0.00 72 1010.7
20260507025404 64 201 1.0 3.0 0.00 0.00 0.00 72 1010.8
20260507025306 64 203 1.0 3.0 0.00 0.00 0.00 72 1010.8
20260507025205 64 205 1.0 3.0 0.00 0.00 0.00 72 1010.8
20260507025105 64 211 1.0 4.0 0.00 0.00 0.00 73 1010.8
20260507025007 64 210 1.0 4.0 0.00 0.00 0.00 73 1010.9
20260507024905 64 209 1.0 4.0 0.00 0.00 0.00 73 1010.8
20260507024804 64 211 2.0 4.0 0.00 0.00 0.00 73 1010.8
20260507024705 64 213 2.0 4.0 0.00 0.00 0.00 74 1010.8
20260507024606 64 213 2.0 4.0 0.00 0.00 0.00 74 1010.7
20260507024505 64 211 2.0 4.0 0.00 0.00 0.00 74 1010.7
20260507024405 64 209 2.0 4.0 0.00 0.00 0.00 74 1010.6
20260507024305 64 209 2.0 4.0 0.00 0.00 0.00 75 1010.6
20260507024205 64 208 2.0 4.0 0.00 0.00 0.00 75 1010.5
20260507024105 64 206 2.0 4.0 0.00 0.00 0.00 75 1010.5
20260507024005 64 205 2.0 4.0 0.00 0.00 0.00 75 1010.5
20260507023906 64 205 2.0 4.0 0.00 0.00 0.00 75 1010.5
20260507023807 64 207 2.0 4.0 0.00 0.00 0.00 75 1010.5
20260507023705 64 207 2.0 4.0 0.00 0.00 0.00 75 1010.5
20260507023606 64 208 2.0 4.0 0.00 0.00 0.00 75 1010.8
20260507023506 64 210 2.0 4.0 0.00 0.00 0.00 76 1010.8
20260507023414 64 209 2.0 5.0 0.00 0.00 0.00 76 1010.7
20260507023306 64 207 2.0 5.0 0.00 0.00 0.00 76 1010.7
20260507023215 64 207 2.0 5.0 0.00 0.00 0.00 76 1010.7
20260507023114 64 205 2.0 5.0 0.00 0.00 0.00 77 1010.7
20260507023005 64 201 2.0 5.0 0.00 0.00 0.00 77 1010.7
20260507022905 64 201 2.0 5.0 0.00 0.00 0.00 77 1010.7
20260507022804 64 200 2.0 5.0 0.00 0.00 0.00 77 1010.7
20260507022705 64 197 2.0 5.0 0.00 0.00 0.00 77 1010.7
20260507022605 64 197 2.0 5.0 0.00 0.00 0.00 77 1010.6
20260507022505 64 196 2.0 5.0 0.00 0.00 0.00 77 1010.6
20260507022405 64 197 2.0 4.0 0.00 0.00 0.00 77 1010.6
20260507022306 64 195 2.0 4.0 0.00 0.00 0.00 77 1010.7
20260507022204 64 196 2.0 4.0 0.00 0.00 0.00 77 1010.7
20260507022104 64 198 2.0 4.0 0.00 0.00 0.00 77 1010.8
20260507022007 64 205 2.0 4.0 0.00 0.00 0.00 78 1010.8
20260507021905 64 207 2.0 6.0 0.00 0.00 0.00 78 1010.9
20260507021805 64 207 2.0 6.0 0.00 0.00 0.00 78 1011.0
20260507021705 64 208 2.0 6.0 0.00 0.00 0.00 78 1011.0
20260507021606 64 208 2.0 6.0 0.00 0.00 0.00 79 1010.9
20260507021504 64 208 2.0 6.0 0.00 0.00 0.00 79 1010.9
20260507021404 64 207 2.0 6.0 0.00 0.00 0.00 79 1011.0
20260507021304 64 209 2.0 6.0 0.00 0.00 0.00 80 1011.0
20260507021204 64 210 2.0 6.0 0.00 0.00 0.00 80 1011.0
20260507021104 64 211 2.0 6.0 0.00 0.00 0.00 80 1011.0
20260507021005 64 209 2.0 6.0 0.00 0.00 0.00 80 1010.9
20260507020904 64 207 2.0 6.0 0.00 0.00 0.00 80 1010.9
20260507020804 64 208 2.0 6.0 0.00 0.00 0.00 80 1010.9
20260507020704 64 209 2.0 6.0 0.00 0.00 0.00 80 1010.9
20260507020604 64 210 2.0 7.0 0.00 0.00 0.00 81 1011.0
20260507020507 64 211 2.0 7.0 0.00 0.00 0.00 81 1011.1
20260507020407 64 213 2.0 7.0 0.00 0.00 0.00 81 1011.1
20260507020304 64 213 2.0 7.0 0.00 0.00 0.00 81 1011.0
20260507020205 64 214 2.0 7.0 0.00 0.00 0.00 82 1011.0
20260507020105 64 213 2.0 7.0 0.00 0.00 0.00 82 1011.1
20260507020004 64 213 2.0 7.0 0.00 0.00 0.00 82 1011.0
20260507015904 64 210 2.0 7.0 0.00 0.00 0.00 82 1011.0
20260507015804 64 210 2.0 7.0 0.00 0.00 0.00 82 1011.0
20260507015704 64 210 2.0 7.0 0.00 0.00 0.00 82 1011.0
20260507015604 64 209 2.0 7.0 0.00 0.00 0.00 83 1011.0
20260507015504 64 209 2.0 6.0 0.00 0.00 0.00 83 1010.9
20260507015404 64 208 2.0 6.0 0.00 0.00 0.00 83 1010.9
20260507015306 64 208 2.0 6.0 0.00 0.00 0.00 83 1010.9
20260507015204 64 206 3.0 6.0 0.00 0.00 0.00 83 1010.8
20260507015104 64 207 3.0 6.0 0.00 0.00 0.00 83 1010.8
20260507015005 64 205 2.0 6.0 0.00 0.00 0.00 83 1010.8
20260507014904 64 208 2.0 6.0 0.00 0.00 0.00 83 1010.8
20260507014804 64 206 2.0 6.0 0.00 0.00 0.00 83 1010.9
20260507014705 64 206 2.0 6.0 0.00 0.00 0.00 83 1010.9
20260507014605 64 205 2.0 6.0 0.00 0.00 0.00 83 1010.9
20260507014505 64 200 2.0 5.0 0.00 0.00 0.00 83 1010.9
20260507014404 64 199 2.0 5.0 0.00 0.00 0.00 83 1010.9
20260507014304 64 197 2.0 5.0 0.00 0.00 0.00 83 1010.8
20260507014204 64 198 2.0 5.0 0.00 0.00 0.00 83 1010.8
20260507014104 64 196 3.0 5.0 0.00 0.00 0.00 83 1010.8
20260507014004 64 197 3.0 5.0 0.00 0.00 0.00 83 1010.8
20260507013904 64 195 3.0 7.0 0.00 0.00 0.00 83 1010.8
20260507013804 64 198 3.0 7.0 0.00 0.00 0.00 82 1010.8
20260507013704 64 198 3.0 7.0 0.00 0.00 0.00 82 1010.9
20260507013604 64 197 3.0 7.0 0.00 0.00 0.00 82 1010.9
20260507013506 64 202 3.0 7.0 0.00 0.00 0.00 82 1010.9
20260507013405 64 203 3.0 7.0 0.00 0.00 0.00 82 1011.0
20260507013305 64 203 3.0 7.0 0.00 0.00 0.00 82 1011.0
20260507013106 64 204 3.0 7.0 0.00 0.00 0.00 82 1011.0
20260507013004 64 205 3.0 7.0 0.00 0.00 0.00 82 1011.1
20260507012904 64 207 3.0 7.0 0.00 0.00 0.00 82 1011.2
20260507012804 64 205 3.0 7.0 0.00 0.00 0.00 82 1011.2
20260507012704 64 206 3.0 7.0 0.00 0.00 0.00 82 1011.3
20260507012604 64 207 3.0 7.0 0.00 0.00 0.00 82 1011.3
20260507012504 64 206 3.0 7.0 0.00 0.00 0.00 82 1011.2
20260507012404 64 206 3.0 7.0 0.00 0.00 0.00 82 1011.3
20260507012306 64 209 3.0 7.0 0.00 0.00 0.00 82 1011.3
20260507012204 64 208 3.0 7.0 0.00 0.00 0.00 82 1011.3
20260507012104 64 208 3.0 7.0 0.00 0.00 0.00 82 1011.2
20260507012004 64 208 3.0 8.0 0.00 0.00 0.00 82 1011.2
20260507011908 64 207 3.0 8.0 0.00 0.00 0.00 82 1011.2
20260507011805 64 208 3.0 8.0 0.00 0.00 0.00 82 1011.2
20260507011703 64 208 3.0 8.0 0.00 0.00 0.00 82 1011.2
20260507011605 64 209 3.0 8.0 0.00 0.00 0.00 82 1011.2
20260507011504 64 208 4.0 8.0 0.00 0.00 0.00 82 1011.2
20260507011404 64 208 4.0 8.0 0.00 0.00 0.00 82 1011.1
20260507011304 64 206 4.0 8.0 0.00 0.00 0.00 82 1011.1
20260507011204 64 206 4.0 8.0 0.00 0.00 0.00 82 1011.1
20260507011104 64 206 4.0 8.0 0.00 0.00 0.00 82 1011.2
20260507011004 64 205 4.0 8.0 0.00 0.00 0.00 82 1011.2
20260507010903 64 205 4.0 8.0 0.00 0.00 0.00 82 1011.2
20260507010804 64 204 4.0 8.0 0.00 0.00 0.00 82 1011.2
20260507010703 64 200 4.0 8.0 0.00 0.00 0.00 82 1011.3
20260507010604 64 200 4.0 8.0 0.00 0.00 0.00 82 1011.2
20260507010503 64 200 4.0 8.0 0.00 0.00 0.00 82 1011.2
20260507010408 64 197 4.0 8.0 0.00 0.00 0.00 82 1011.3
20260507010304 64 197 4.0 10.0 0.00 0.00 0.00 82 1011.2
20260507010203 64 197 4.0 10.0 0.00 0.00 0.00 82 1011.2
20260507010106 64 196 4.0 10.0 0.00 0.00 0.00 82 1011.3
20260507010012 64 195 4.0 10.0 0.00 0.00 0.00 82 1011.3
20260507005905 64 193 4.0 10.0 0.00 0.00 0.00 82 1011.3
20260507005805 64 193 4.0 10.0 0.00 0.00 0.00 82 1011.4
20260507005704 64 196 4.0 10.0 0.00 0.00 0.00 82 1011.4
20260507005605 64 195 4.0 10.0 0.00 0.00 0.00 82 1011.3
20260507005505 64 197 4.0 10.0 0.00 0.00 0.00 82 1011.3
20260507005405 64 198 4.0 10.0 0.00 0.00 0.00 82 1011.3
20260507005306 64 199 3.0 7.0 0.00 0.00 0.00 82 1011.3
20260507005205 64 198 3.0 7.0 0.00 0.00 0.00 81 1011.3
20260507005104 64 196 3.0 7.0 0.00 0.00 0.00 81 1011.3
20260507005006 64 197 3.0 7.0 0.00 0.00 0.00 81 1011.3
20260507004905 64 199 3.0 7.0 0.00 0.00 0.00 81 1011.2
20260507004810 64 198 3.0 7.0 0.00 0.00 0.00 81 1011.3
20260507004705 64 197 3.0 7.0 0.00 0.00 0.00 81 1011.3
20260507004606 64 196 3.0 7.0 0.00 0.00 0.00 81 1011.2
20260507004505 64 193 3.0 7.0 0.00 0.00 0.00 81 1011.3
20260507004404 64 194 3.0 7.0 0.00 0.00 0.00 81 1011.3
20260507004305 64 194 3.0 7.0 0.00 0.00 0.00 81 1011.3
20260507004205 64 195 3.0 7.0 0.00 0.00 0.00 81 1011.3
20260507004105 64 195 3.0 6.0 0.00 0.00 0.00 81 1011.4
20260507004005 64 196 2.0 6.0 0.00 0.00 0.00 81 1011.4
20260507003905 64 196 2.0 6.0 0.00 0.00 0.00 81 1011.4
20260507003804 64 197 2.0 6.0 0.00 0.00 0.00 81 1011.6
20260507003705 64 198 2.0 6.0 0.00 0.00 0.00 81 1011.6
20260507003605 64 199 2.0 6.0 0.00 0.00 0.00 81 1011.6
20260507003504 64 202 2.0 5.0 0.00 0.00 0.00 81 1011.6
20260507003405 64 202 2.0 5.0 0.00 0.00 0.00 81 1011.6
20260507003307 64 203 2.0 5.0 0.00 0.00 0.00 81 1011.7
20260507003204 64 202 2.0 5.0 0.00 0.00 0.00 81 1011.7
20260507003105 64 202 2.0 5.0 0.00 0.00 0.00 81 1011.6
20260507003004 64 198 2.0 5.0 0.00 0.00 0.00 81 1011.6
20260507002905 64 198 2.0 5.0 0.00 0.00 0.00 81 1011.6
20260507002824 64 198 2.0 5.0 0.00 0.00 0.00 81 1011.7
20260507002722 64 197 2.0 5.0 0.00 0.00 0.00 81 1011.7
20260507002620 64 195 2.0 5.0 0.00 0.00 0.00 81 1011.8
20260507002524 64 195 2.0 5.0 0.00 0.00 0.00 81 1011.7
20260507002420 64 193 2.0 5.0 0.00 0.00 0.00 81 1011.7
20260507002312 64 193 2.0 5.0 0.00 0.00 0.00 82 1011.7
20260507002223 64 191 2.0 5.0 0.00 0.00 0.00 82 1011.7
20260507002123 64 197 2.0 5.0 0.00 0.00 0.00 82 1011.8
20260507002023 64 201 2.0 5.0 0.00 0.00 0.00 82 1011.9
20260507001919 64 201 2.0 5.0 0.00 0.00 0.00 82 1011.9
20260507001823 64 202 2.0 5.0 0.00 0.00 0.00 82 1011.9
20260507001706 64 203 2.0 5.0 0.00 0.00 0.00 82 1011.9
20260507001606 64 204 2.0 5.0 0.00 0.00 0.00 82 1011.9
20260507001504 64 203 2.0 5.0 0.00 0.00 0.00 82 1011.9
20260507001404 64 204 2.0 5.0 0.00 0.00 0.00 82 1011.9
20260507001304 64 205 2.0 5.0 0.00 0.00 0.00 82 1011.9
20260507001204 64 207 2.0 5.0 0.00 0.00 0.00 82 1011.8
20260507001104 64 206 3.0 6.0 0.00 0.00 0.00 82 1011.8
20260507001004 64 206 3.0 6.0 0.00 0.00 0.00 82 1011.9
20260507000904 64 208 3.0 6.0 0.00 0.00 0.00 82 1011.8
20260507000804 64 205 3.0 7.0 0.00 0.00 0.00 82 1011.8
20260507000704 64 206 3.0 7.0 0.00 0.00 0.00 82 1011.9
20260507000604 64 205 3.0 7.0 0.00 0.00 0.00 83 1011.9
20260507000504 64 202 3.0 7.0 0.00 0.00 0.00 83 1011.8
20260507000406 64 202 3.0 7.0 0.00 0.00 0.00 83 1011.9
20260507000306 64 199 3.0 7.0 0.00 0.00 0.00 83 1011.9
20260507000205 64 196 3.0 7.0 0.00 0.00 0.00 83 1011.9
20260507000106 64 198 3.0 7.0 0.00 0.00 0.00 83 1011.9
20260507000005 64 198 3.0 7.0 0.00 0.00 0.00 83 1011.8
20260506235904 64 198 3.0 7.0 0.00 0.00 0.00 83 1011.7
20260506235804 64 199 3.0 7.0 0.00 0.00 0.00 83 1011.7
20260506235704 64 198 3.0 7.0 0.00 0.00 0.00 83 1011.8
20260506235604 64 197 3.0 7.0 0.00 0.00 0.00 83 1011.8
20260506235505 64 201 3.0 7.0 0.00 0.00 0.00 83 1011.8
20260506235404 64 202 4.0 7.0 0.00 0.00 0.00 83 1011.7
20260506235306 64 205 4.0 7.0 0.00 0.00 0.00 83 1011.7
20260506235203 64 207 4.0 7.0 0.00 0.00 0.00 83 1011.7
20260506235103 64 205 4.0 7.0 0.00 0.00 0.00 83 1011.8
20260506235006 64 205 4.0 7.0 0.00 0.00 0.00 83 1011.8
20260506234909 64 205 4.0 7.0 0.00 0.00 0.00 83 1011.8
20260506234805 64 207 4.0 8.0 0.00 0.00 0.00 83 1011.8
20260506234704 64 209 5.0 8.0 0.00 0.00 0.00 83 1011.8
20260506234605 64 209 5.0 8.0 0.00 0.00 0.00 83 1011.9
20260506234504 64 206 5.0 8.0 0.00 0.00 0.00 83 1011.9
20260506234404 64 206 5.0 9.0 0.00 0.00 0.00 83 1011.9
20260506234304 64 206 5.0 9.0 0.00 0.00 0.00 83 1012.0
20260506234203 64 208 5.0 9.0 0.00 0.00 0.00 83 1012.0
20260506234104 64 208 5.0 9.0 0.00 0.00 0.00 83 1011.9
20260506234004 64 207 5.0 9.0 0.00 0.00 0.00 83 1011.9
20260506233904 64 208 5.0 12.0 0.00 0.00 0.00 83 1011.8
20260506233803 64 207 5.0 12.0 0.00 0.00 0.00 83 1011.8
20260506233703 64 207 5.0 12.0 0.00 0.00 0.00 83 1011.8
20260506233603 64 208 5.0 12.0 0.00 0.00 0.00 83 1011.6
20260506233505 64 209 5.0 12.0 0.00 0.00 0.00 83 1011.6
20260506233404 64 209 5.0 12.0 0.00 0.00 0.00 83 1011.7
20260506233304 64 207 5.0 12.0 0.00 0.00 0.00 82 1011.6
20260506233205 64 206 5.0 12.0 0.00 0.00 0.00 82 1011.6
20260506233004 64 207 5.0 12.0 0.00 0.00 0.00 82 1011.6
20260506232904 64 206 5.0 12.0 0.00 0.00 0.00 82 1011.5
20260506232804 64 206 5.0 11.0 0.00 0.00 0.00 82 1011.5
20260506232705 64 208 5.0 11.0 0.00 0.00 0.00 82 1011.5
20260506232605 64 207 5.0 11.0 0.00 0.00 0.00 82 1011.5
20260506232504 64 209 5.0 14.0 0.00 0.00 0.00 82 1011.5
20260506232404 64 210 5.0 14.0 0.00 0.00 0.00 82 1011.5
20260506232306 64 213 5.0 14.0 0.00 0.00 0.00 83 1011.5
20260506232204 64 211 5.0 14.0 0.00 0.00 0.00 83 1011.5
20260506232104 64 209 5.0 14.0 0.00 0.00 0.00 83 1011.6
20260506232005 64 215 5.0 14.0 0.00 0.00 0.00 83 1011.5
20260506231904 64 217 5.0 14.0 0.00 0.00 0.00 83 1011.5
20260506231804 64 251 5.0 14.0 0.00 0.00 0.00 83 1011.4
20260506231704 64 17 5.0 14.0 0.00 0.00 0.00 83 1011.4
20260506231605 64 22 5.0 14.0 0.00 0.00 0.00 83 1011.4
20260506230905 64 203 5.0 12.0 0.00 0.00 0.00 83 1011.4
20260506230805 64 199 5.0 12.0 0.00 0.00 0.00 83 1011.4
20260506230704 64 200 5.0 10.0 0.00 0.00 0.00 82 1011.3
20260506230604 64 201 5.0 10.0 0.00 0.00 0.00 82 1011.3
20260506230506 64 200 5.0 10.0 0.00 0.00 0.00 82 1011.3
20260506230405 64 200 5.0 10.0 0.00 0.00 0.00 82 1011.3
20260506230305 64 203 5.0 10.0 0.00 0.00 0.00 82 1011.3
20260506230206 64 203 5.0 10.0 0.00 0.00 0.00 82 1011.4
20260506230109 64 202 5.0 10.0 0.00 0.00 0.00 82 1011.4
20260506230005 64 201 5.0 10.0 0.00 0.00 0.00 82 1011.4
20260506225904 64 204 5.0 11.0 0.00 0.00 0.00 82 1011.4
20260506225804 64 207 5.0 11.0 0.00 0.00 0.00 82 1011.2
20260506225704 64 207 5.0 11.0 0.00 0.00 0.00 82 1011.2
20260506225604 65 206 5.0 11.0 0.00 0.00 0.00 81 1011.3
20260506225505 64 205 5.0 11.0 0.00 0.00 0.00 81 1011.3
20260506225404 65 203 5.0 11.0 0.00 0.00 0.00 81 1011.3
20260506225306 65 201 6.0 11.0 0.00 0.00 0.00 81 1011.2
20260506225205 65 201 6.0 11.0 0.00 0.00 0.00 81 1011.2
20260506225104 65 203 6.0 11.0 0.00 0.00 0.00 81 1011.3
20260506225008 65 203 6.0 11.0 0.00 0.00 0.00 81 1011.3
20260506224904 65 201 6.0 11.0 0.00 0.00 0.00 80 1011.2
20260506224806 65 201 6.0 11.0 0.00 0.00 0.00 80 1011.2
20260506224705 65 203 6.0 11.0 0.00 0.00 0.00 80 1011.2
20260506224606 65 202 5.0 13.0 0.00 0.00 0.00 79 1011.3
20260506224505 65 204 5.0 13.0 0.00 0.00 0.00 79 1011.3
20260506224404 65 207 5.0 13.0 0.00 0.00 0.00 79 1011.2
20260506224304 65 207 5.0 13.0 0.00 0.00 0.00 78 1011.1
20260506224204 65 209 5.0 13.0 0.00 0.00 0.00 78 1011.1
20260506224104 65 208 4.0 13.0 0.00 0.00 0.00 77 1011.0
20260506224004 65 206 4.0 13.0 0.00 0.00 0.00 77 1011.1
20260506223904 65 209 4.0 13.0 0.00 0.00 0.00 76 1011.1
20260506223804 65 210 4.0 13.0 0.00 0.00 0.00 76 1011.2
20260506223704 65 207 4.0 13.0 0.00 0.00 0.00 75 1011.2
20260506223604 65 205 4.0 11.0 0.00 0.00 0.00 74 1011.1
20260506223506 65 204 4.0 11.0 0.00 0.00 0.00 73 1011.1
20260506223405 65 205 4.0 11.0 0.00 0.00 0.00 73 1011.1
20260506223305 65 204 4.0 11.0 0.00 0.00 0.00 72 1011.0
20260506223206 65 203 3.0 10.0 0.00 0.00 0.00 72 1011.0
20260506223105 65 203 3.0 10.0 0.00 0.00 0.00 72 1011.0
20260506223005 65 204 3.0 10.0 0.00 0.00 0.00 71 1011.0
20260506222905 65 204 3.0 10.0 0.00 0.00 0.00 71 1011.0
20260506222804 65 202 3.0 10.0 0.00 0.00 0.00 71 1011.0
20260506222704 65 206 4.0 9.0 0.00 0.00 0.00 71 1011.0
20260506222605 65 208 4.0 9.0 0.00 0.00 0.00 71 1011.0
20260506222505 65 208 4.0 9.0 0.00 0.00 0.00 71 1011.0
20260506222405 65 206 4.0 9.0 0.00 0.00 0.00 71 1011.0
20260506222306 65 205 4.0 9.0 0.00 0.00 0.00 71 1011.0
20260506222204 65 203 4.0 8.0 0.00 0.00 0.00 71 1011.0
20260506222105 65 205 4.0 10.0 0.00 0.00 0.00 71 1011.0
20260506222005 65 205 4.0 10.0 0.00 0.00 0.00 71 1011.0
20260506221907 65 202 4.0 10.0 0.00 0.00 0.00 71 1011.0
20260506221806 65 202 4.0 10.0 0.00 0.00 0.00 71 1011.0
20260506221705 65 202 4.0 10.0 0.00 0.00 0.00 71 1011.0
20260506221606 65 200 4.0 10.0 0.00 0.00 0.00 71 1011.0
20260506221504 65 199 4.0 10.0 0.00 0.00 0.00 71 1011.0
20260506221404 65 198 4.0 12.0 0.00 0.00 0.00 71 1011.0
20260506221304 65 200 4.0 12.0 0.00 0.00 0.00 72 1011.0
20260506221209 65 203 4.0 12.0 0.00 0.00 0.00 71 1011.1
20260506221104 65 201 4.0 12.0 0.00 0.00 0.00 71 1011.1
20260506221004 65 202 4.0 12.0 0.00 0.00 0.00 71 1011.0
20260506220904 65 203 3.0 12.0 0.00 0.00 0.00 71 1010.9
20260506220804 65 204 3.0 12.0 0.00 0.00 0.00 71 1010.9
20260506220704 65 202 3.0 12.0 0.00 0.00 0.00 71 1010.8
20260506220604 65 203 3.0 12.0 0.00 0.00 0.00 71 1010.8
20260506220506 65 204 3.0 12.0 0.00 0.00 0.00 71 1010.9
20260506220405 65 206 3.0 8.0 0.00 0.00 0.00 71 1010.9
20260506220304 65 206 3.0 8.0 0.00 0.00 0.00 71 1010.9
20260506220205 65 203 3.0 8.0 0.00 0.00 0.00 71 1010.8
20260506220104 65 203 3.0 8.0 0.00 0.00 0.00 72 1010.8
20260506220036 65 204 3.0 7.0 0.00 0.00 0.00 72 1011.0
20260506215904 65 202 3.0 7.0 0.00 0.00 0.00 73 1011.0
20260506215804 65 198 3.0 7.0 0.00 0.00 0.00 73 1011.0
20260506215704 64 199 3.0 7.0 0.00 0.00 0.00 73 1010.9
20260506215604 65 201 3.0 7.0 0.00 0.00 0.00 74 1011.0
20260506215504 64 200 3.0 7.0 0.00 0.00 0.00 75 1011.0
20260506215404 64 199 2.0 7.0 0.00 0.00 0.00 75 1011.0
20260506215306 64 199 2.0 7.0 0.00 0.00 0.00 75 1011.0
20260506215204 64 201 2.0 7.0 0.00 0.00 0.00 76 1011.0
20260506215105 64 199 2.0 7.0 0.00 0.00 0.00 75 1011.0
20260506215006 64 195 2.0 6.0 0.00 0.00 0.00 76 1011.0
20260506214905 64 198 2.0 6.0 0.00 0.00 0.00 76 1011.1
20260506214805 64 197 2.0 6.0 0.00 0.00 0.00 75 1011.1
20260506214705 64 198 2.0 6.0 0.00 0.00 0.00 76 1011.2
20260506214605 64 193 2.0 7.0 0.00 0.00 0.00 76 1011.0
20260506214504 64 196 2.0 7.0 0.00 0.00 0.00 76 1011.0
20260506214404 64 197 2.0 7.0 0.00 0.00 0.00 77 1011.0
20260506214304 64 196 2.0 7.0 0.00 0.00 0.00 77 1011.0
20260506214209 64 199 2.0 7.0 0.00 0.00 0.00 77 1011.0
20260506214104 64 200 2.0 7.0 0.00 0.00 0.00 77 1011.0
20260506214004 64 200 2.0 7.0 0.00 0.00 0.00 77 1011.0
20260506213903 64 198 2.0 7.0 0.00 0.00 0.00 77 1011.0
20260506213804 64 198 2.0 7.0 0.00 0.00 0.00 78 1010.9
20260506213704 64 198 2.0 7.0 0.00 0.00 0.00 78 1010.9
20260506213604 64 201 2.0 6.0 0.00 0.00 0.00 78 1010.9
20260506213506 64 198 2.0 6.0 0.00 0.00 0.00 78 1010.9
20260506213405 64 197 2.0 6.0 0.00 0.00 0.00 78 1010.9
20260506213305 64 192 2.0 6.0 0.00 0.00 0.00 78 1010.9
20260506213205 64 190 2.0 6.0 0.00 0.00 0.00 78 1010.9
20260506213104 64 192 2.0 6.0 0.00 0.00 0.00 78 1010.7
20260506213004 64 193 2.0 5.0 0.00 0.00 0.00 78 1010.7
20260506212904 64 193 2.0 5.0 0.00 0.00 0.00 78 1010.8
20260506212804 64 195 2.0 5.0 0.00 0.00 0.00 78 1010.7
20260506212704 64 195 2.0 5.0 0.00 0.00 0.00 79 1010.7
20260506212605 64 194 2.0 5.0 0.00 0.00 0.00 79 1010.6
20260506212505 64 193 2.0 4.0 0.00 0.00 0.00 79 1010.6
20260506212409 64 195 2.0 4.0 0.00 0.00 0.00 79 1010.7
20260506212306 64 198 2.0 4.0 0.00 0.00 0.00 80 1010.6
20260506212204 64 198 2.0 4.0 0.00 0.00 0.00 80 1010.6
20260506212104 64 198 2.0 4.0 0.00 0.00 0.00 80 1010.6
20260506212004 64 196 2.0 5.0 0.00 0.00 0.00 80 1010.5
20260506211905 64 197 2.0 5.0 0.00 0.00 0.00 80 1010.5
20260506211806 64 198 2.0 5.0 0.00 0.00 0.00 81 1010.5
20260506211706 64 199 2.0 5.0 0.00 0.00 0.00 81 1010.5
20260506211605 64 200 2.0 5.0 0.00 0.00 0.00 81 1010.5
20260506211505 64 202 2.0 5.0 0.00 0.00 0.00 81 1010.5
20260506211405 64 203 2.0 5.0 0.00 0.00 0.00 81 1010.5
20260506211304 64 200 2.0 7.0 0.00 0.00 0.00 81 1010.6
20260506211204 64 202 2.0 7.0 0.00 0.00 0.00 82 1010.6
20260506211105 64 202 2.0 7.0 0.00 0.00 0.00 82 1010.7
20260506211005 64 205 3.0 7.0 0.00 0.00 0.00 82 1010.7
20260506210905 64 206 3.0 7.0 0.00 0.00 0.00 82 1010.7
20260506210806 64 206 3.0 7.0 0.00 0.00 0.00 83 1010.7
20260506210705 64 202 3.0 7.0 0.00 0.00 0.00 83 1010.7
20260506210608 64 202 3.0 7.0 0.00 0.00 0.00 83 1010.7
20260506210507 64 205 3.0 7.0 0.00 0.00 0.00 83 1010.7
20260506210405 64 205 3.0 7.0 0.00 0.00 0.00 83 1010.7
20260506210306 64 209 3.0 7.0 0.00 0.00 0.00 84 1010.8
20260506210206 64 210 3.0 8.0 0.00 0.00 0.00 83 1010.7
20260506210109 64 210 3.0 8.0 0.00 0.00 0.00 84 1010.7
20260506210005 64 208 3.0 8.0 0.00 0.00 0.00 84 1010.9
20260506205905 64 206 3.0 8.0 0.00 0.00 0.00 84 1010.9
20260506205804 64 206 3.0 8.0 0.00 0.00 0.00 84 1010.9
20260506205704 64 208 3.0 8.0 0.00 0.00 0.00 84 1011.0
20260506205604 64 210 3.0 8.0 0.00 0.00 0.00 84 1011.0
20260506205505 64 209 3.0 8.0 0.00 0.00 0.00 84 1011.0
20260506205404 64 207 3.0 8.0 0.00 0.00 0.00 84 1011.0
20260506205306 64 208 3.0 8.0 0.00 0.00 0.00 85 1010.9
20260506205205 64 206 3.0 7.0 0.00 0.00 0.00 85 1011.0
20260506205107 64 206 3.0 7.0 0.00 0.00 0.00 85 1011.0
20260506205007 64 207 3.0 7.0 0.00 0.00 0.00 85 1011.0
20260506204907 64 210 3.0 7.0 0.00 0.00 0.00 85 1011.1
20260506204807 64 210 3.0 7.0 0.00 0.00 0.00 85 1011.1
20260506204705 64 210 3.0 7.0 0.00 0.00 0.00 85 1011.1
20260506204605 64 208 3.0 7.0 0.00 0.00 0.00 85 1011.1
20260506204505 64 206 3.0 7.0 0.00 0.00 0.00 85 1011.2
20260506204405 64 207 3.0 7.0 0.00 0.00 0.00 85 1011.2
20260506204305 64 206 3.0 7.0 0.00 0.00 0.00 85 1011.2
20260506204205 64 205 3.0 8.0 0.00 0.00 0.00 85 1011.2
20260506204104 64 206 3.0 8.0 0.00 0.00 0.00 85 1011.2
20260506204005 64 208 3.0 8.0 0.00 0.00 0.00 85 1011.2
20260506203904 64 206 3.0 8.0 0.00 0.00 0.00 86 1011.2
20260506203805 64 205 3.0 8.0 0.00 0.00 0.00 86 1011.2
20260506203705 64 206 3.0 8.0 0.00 0.00 0.00 86 1011.4
20260506203604 64 208 3.0 8.0 0.00 0.00 0.00 86 1011.4
20260506203510 64 208 3.0 8.0 0.00 0.00 0.00 86 1011.4
20260506203406 64 209 3.0 8.0 0.00 0.00 0.00 86 1011.5
20260506203304 64 210 3.0 8.0 0.00 0.00 0.00 86 1011.5
20260506203205 64 208 3.0 8.0 0.00 0.00 0.00 86 1011.6
20260506203104 64 206 4.0 8.0 0.00 0.00 0.00 86 1011.8
20260506203005 64 205 4.0 7.0 0.00 0.00 0.00 86 1011.8
20260506202904 64 205 4.0 7.0 0.00 0.00 0.00 86 1011.8
20260506202804 64 206 4.0 7.0 0.00 0.00 0.00 86 1011.8
20260506202704 64 203 4.0 7.0 0.00 0.00 0.00 86 1011.9
20260506202605 64 204 4.0 8.0 0.00 0.00 0.00 86 1011.9
20260506202504 64 203 4.0 9.0 0.00 0.00 0.00 86 1011.9
20260506202404 64 203 4.0 9.0 0.00 0.00 0.00 86 1012.0
20260506202306 64 203 4.0 9.0 0.00 0.00 0.00 86 1012.0
20260506202204 64 208 4.0 9.0 0.00 0.00 0.00 86 1012.0
20260506202104 64 207 4.0 9.0 0.00 0.00 0.00 86 1012.0
20260506202006 64 207 4.0 9.0 0.00 0.00 0.00 86 1012.0
20260506201907 64 206 4.0 9.0 0.00 0.00 0.00 86 1012.1
20260506201805 64 205 4.0 9.0 0.00 0.00 0.00 85 1012.1
20260506201704 64 208 4.0 9.0 0.00 0.00 0.00 86 1012.1
20260506201607 64 208 4.0 9.0 0.00 0.00 0.00 86 1012.1
20260506201504 64 207 4.0 9.0 0.00 0.00 0.00 85 1012.1
20260506201404 64 209 4.0 9.0 0.00 0.00 0.00 86 1012.1
20260506201305 64 208 4.0 9.0 0.00 0.00 0.00 85 1012.2
20260506201204 64 204 4.0 9.0 0.00 0.00 0.00 85 1012.2
20260506201105 64 209 4.0 9.0 0.00 0.00 0.00 85 1012.2
20260506201004 64 207 4.0 9.0 0.00 0.00 0.00 85 1012.2
20260506200905 64 208 4.0 11.0 0.00 0.00 0.00 86 1012.3
20260506200804 64 206 4.0 11.0 0.00 0.00 0.00 86 1012.3
20260506200704 64 205 4.0 11.0 0.00 0.00 0.00 86 1012.3
20260506200604 64 204 4.0 11.0 0.00 0.00 0.00 85 1012.4
20260506200506 64 208 4.0 11.0 0.00 0.00 0.00 85 1012.4
20260506200407 64 203 4.0 11.0 0.00 0.00 0.00 85 1012.4
20260506200305 64 203 4.0 11.0 0.00 0.00 0.00 85 1012.4
20260506200212 64 204 4.0 11.0 0.00 0.00 0.00 85 1012.4
20260506200106 64 202 4.0 11.0 0.00 0.00 0.00 85 1012.4
20260506200005 64 202 4.0 11.0 0.00 0.00 0.00 86 1012.4
20260506195905 64 201 4.0 11.0 0.00 0.00 0.00 86 1012.4
20260506195804 64 203 4.0 11.0 0.00 0.00 0.00 86 1012.4
20260506195704 64 205 4.0 11.0 0.00 0.00 0.00 86 1012.4
20260506195604 64 205 4.0 11.0 0.00 0.00 0.00 86 1012.4
20260506195505 64 205 4.0 9.0 0.00 0.00 0.00 86 1012.5
20260506195404 64 208 4.0 9.0 0.00 0.00 0.00 86 1012.5
20260506195306 64 207 4.0 10.0 0.00 0.00 0.00 86 1012.4
20260506195204 64 206 4.0 10.0 0.00 0.00 0.00 86 1012.4
20260506195104 64 206 4.0 10.0 0.00 0.00 0.00 86 1012.4
20260506195005 64 206 4.0 10.0 0.00 0.00 0.00 86 1012.3
20260506194904 64 206 4.0 10.0 0.00 0.00 0.00 86 1012.3
20260506194804 64 206 4.0 10.0 0.00 0.00 0.00 86 1012.3
20260506194705 64 205 4.0 10.0 0.00 0.00 0.00 86 1012.3
20260506194606 64 205 4.0 10.0 0.00 0.00 0.00 86 1012.3
20260506194504 64 204 4.0 10.0 0.00 0.00 0.00 86 1012.3
20260506194404 64 205 4.0 10.0 0.00 0.00 0.00 86 1012.3
20260506194304 64 204 4.0 9.0 0.00 0.00 0.00 86 1012.3
20260506194204 64 204 4.0 9.0 0.00 0.00 0.00 86 1012.3
20260506194104 64 202 4.0 9.0 0.00 0.00 0.00 86 1012.3
20260506194005 64 205 4.0 9.0 0.00 0.00 0.00 86 1012.3
20260506193904 64 206 4.0 8.0 0.00 0.00 0.00 86 1012.3
20260506193804 64 205 4.0 8.0 0.00 0.00 0.00 86 1012.4
20260506193705 64 205 4.0 8.0 0.00 0.00 0.00 86 1012.4
20260506193604 64 206 4.0 8.0 0.00 0.00 0.00 86 1012.4
20260506193510 64 206 4.0 8.0 0.00 0.00 0.00 86 1012.4
20260506193404 64 206 4.0 8.0 0.00 0.00 0.00 86 1012.4
20260506193305 64 209 4.0 8.0 0.00 0.00 0.00 85 1012.4
20260506193207 64 208 4.0 8.0 0.00 0.00 0.00 86 1012.4
20260506193106 64 208 4.0 8.0 0.00 0.00 0.00 86 1012.4
20260506193004 64 210 4.0 8.0 0.00 0.00 0.00 86 1012.3
20260506192904 64 209 4.0 8.0 0.00 0.00 0.00 86 1012.3
20260506192804 64 210 3.0 8.0 0.00 0.00 0.00 86 1012.3
20260506192704 64 211 3.0 8.0 0.00 0.00 0.00 85 1012.2
20260506192604 64 209 3.0 8.0 0.00 0.00 0.00 85 1012.2
20260506192505 64 210 3.0 8.0 0.00 0.00 0.00 85 1012.3
20260506192404 64 211 3.0 8.0 0.00 0.00 0.00 85 1012.3
20260506192305 64 209 4.0 8.0 0.00 0.00 0.00 85 1012.3
20260506192205 64 210 4.0 8.0 0.00 0.00 0.00 85 1012.4
20260506192104 64 209 4.0 8.0 0.00 0.00 0.00 85 1012.4
20260506192006 64 207 4.0 8.0 0.00 0.00 0.00 85 1012.4
20260506191904 64 205 4.0 8.0 0.00 0.00 0.00 85 1012.4
20260506191805 64 202 4.0 8.0 0.00 0.00 0.00 85 1012.4
20260506191707 64 199 4.0 8.0 0.00 0.00 0.00 85 1012.4
20260506191606 64 200 4.0 8.0 0.00 0.00 0.00 85 1012.4
20260506191505 64 196 4.0 10.0 0.00 0.00 0.00 85 1012.5
20260506191404 64 195 4.0 10.0 0.00 0.00 0.00 85 1012.3
20260506191304 64 195 4.0 10.0 0.00 0.00 0.00 85 1012.3
20260506191205 64 194 5.0 10.0 0.00 0.00 0.00 85 1012.4
20260506191104 64 194 5.0 10.0 0.00 0.00 0.00 85 1012.4
20260506190904 64 195 5.0 16.0 0.00 0.00 0.00 85 1012.4
20260506190804 64 195 5.0 16.0 0.00 0.00 0.00 85 1012.4
20260506190704 64 196 5.0 16.0 0.00 0.00 0.00 85 1012.4
20260506190604 64 198 5.0 16.0 0.00 0.00 0.00 85 1012.4
20260506190504 64 199 4.0 16.0 0.00 0.00 0.00 85 1012.4
20260506190404 64 201 4.0 16.0 0.00 0.00 0.00 84 1012.5
20260506190304 64 202 4.0 16.0 0.00 0.00 0.00 84 1012.5
20260506190204 64 203 4.0 16.0 0.00 0.00 0.00 84 1012.4
20260506190105 64 205 4.0 16.0 0.00 0.00 0.00 84 1012.4
20260506190005 64 205 4.0 16.0 0.00 0.00 0.00 84 1012.4
20260506185904 64 204 4.0 10.0 0.00 0.00 0.00 84 1012.4
20260506185804 64 205 4.0 10.0 0.00 0.00 0.00 84 1012.4
20260506185704 64 204 4.0 10.0 0.00 0.00 0.00 84 1012.4
20260506185604 64 201 4.0 10.0 0.00 0.00 0.00 84 1012.4
20260506185504 64 202 4.0 10.0 0.00 0.00 0.00 84 1012.4
20260506185404 64 201 4.0 11.0 0.00 0.00 0.00 84 1012.3
20260506185306 64 199 4.0 11.0 0.00 0.00 0.00 84 1012.3
20260506185204 64 197 4.0 11.0 0.00 0.00 0.00 84 1012.3
20260506185104 64 196 4.0 11.0 0.00 0.00 0.00 84 1012.2
20260506185005 64 197 4.0 11.0 0.00 0.00 0.00 84 1012.2
20260506184904 64 196 4.0 11.0 0.00 0.00 0.00 84 1012.2
20260506184806 64 197 4.0 11.0 0.00 0.00 0.00 84 1012.2
20260506184708 64 196 4.0 11.0 0.00 0.00 0.00 84 1012.2
20260506184606 64 195 4.0 11.0 0.00 0.00 0.00 84 1012.1
20260506184505 65 195 4.0 11.0 0.00 0.00 0.00 84 1012.1
20260506184405 65 194 4.0 9.0 0.00 0.00 0.00 83 1012.1
20260506184305 65 194 5.0 9.0 0.00 0.00 0.00 83 1012.0
20260506184205 65 193 5.0 10.0 0.00 0.00 0.00 83 1012.0
20260506184104 65 194 5.0 10.0 0.00 0.00 0.00 83 1012.0
20260506184005 65 193 5.0 10.0 0.00 0.00 0.00 83 1012.0
20260506183905 65 194 5.0 11.0 0.00 0.00 0.00 83 1012.0
20260506183804 65 191 5.0 14.0 0.00 0.00 0.00 83 1012.0
20260506183705 65 191 5.0 14.0 0.00 0.00 0.00 83 1012.0
20260506183604 65 192 5.0 14.0 0.00 0.00 0.00 83 1012.0
20260506183507 65 194 5.0 14.0 0.00 0.00 0.00 83 1011.9
20260506183404 65 193 4.0 14.0 0.00 0.00 0.00 83 1011.9
20260506183306 65 194 4.0 14.0 0.00 0.00 0.00 83 1011.9
20260506183206 65 193 4.0 14.0 0.00 0.00 0.00 83 1011.9
20260506183109 65 195 4.0 14.0 0.00 0.00 0.00 83 1011.9
20260506183006 65 195 4.0 14.0 0.00 0.00 0.00 82 1012.0
20260506182904 65 197 4.0 14.0 0.00 0.00 0.00 83 1012.0
20260506182805 65 200 4.0 9.0 0.00 0.00 0.00 83 1011.9
20260506182705 65 201 4.0 9.0 0.00 0.00 0.00 82 1011.9
20260506182609 65 203 4.0 9.0 0.00 0.00 0.00 82 1011.9
20260506182509 65 201 4.0 8.0 0.00 0.00 0.00 82 1011.9
20260506182405 65 203 4.0 8.0 0.00 0.00 0.00 82 1011.9
20260506182306 65 205 4.0 8.0 0.00 0.00 0.00 82 1011.9
20260506182205 65 207 4.0 8.0 0.00 0.00 0.00 82 1011.9
20260506182105 65 208 4.0 9.0 0.00 0.00 0.00 82 1011.9
20260506182004 65 208 4.0 9.0 0.00 0.00 0.00 82 1011.7
20260506181904 65 209 4.0 9.0 0.00 0.00 0.00 82 1011.7
20260506181805 65 209 4.0 9.0 0.00 0.00 0.00 82 1011.7
20260506181705 65 210 4.0 9.0 0.00 0.00 0.00 82 1011.7
20260506181605 65 210 4.0 9.0 0.00 0.00 0.00 82 1011.7
20260506181506 65 212 4.0 9.0 0.00 0.00 0.00 82 1011.7
20260506181404 65 211 4.0 9.0 0.00 0.00 0.00 82 1011.7
20260506181304 65 211 4.0 9.0 0.00 0.00 0.00 82 1011.7
20260506181205 65 213 4.0 9.0 0.00 0.00 0.00 82 1011.7
20260506181104 65 212 4.0 9.0 0.00 0.00 0.00 82 1011.7
20260506181005 65 213 4.0 9.0 0.00 0.00 0.00 82 1011.7
20260506180904 65 209 4.0 9.0 0.00 0.00 0.00 82 1011.7
20260506180804 65 208 4.0 9.0 0.00 0.00 0.00 82 1011.7
20260506180704 65 209 4.0 9.0 0.00 0.00 0.00 82 1011.6
20260506180605 65 209 4.0 9.0 0.00 0.00 0.00 82 1011.6
20260506180506 65 208 4.0 9.0 0.00 0.00 0.00 82 1011.6
20260506180405 65 209 4.0 9.0 0.00 0.00 0.00 81 1011.5
20260506180306 65 209 4.0 9.0 0.00 0.00 0.00 81 1011.5
20260506180207 65 205 4.0 9.0 0.00 0.00 0.00 81 1011.6
20260506180105 66 204 4.0 9.0 0.00 0.00 0.00 81 1011.6
20260506180006 65 206 4.0 9.0 0.00 0.00 0.00 81 1011.5
20260506175905 66 208 4.0 9.0 0.00 0.00 0.00 81 1011.6
20260506175805 66 209 4.0 9.0 0.00 0.00 0.00 81 1011.6
20260506175704 66 208 4.0 9.0 0.00 0.00 0.00 81 1011.6
20260506175605 66 210 4.0 9.0 0.00 0.00 0.00 81 1011.6
20260506175505 66 207 4.0 9.0 0.00 0.00 0.00 81 1011.5
20260506175405 66 208 4.0 9.0 0.00 0.00 0.00 81 1011.5
20260506175306 66 207 4.0 9.0 0.00 0.00 0.00 81 1011.5
20260506175204 66 204 3.0 9.0 0.00 0.00 0.00 81 1011.5
20260506175105 66 204 3.0 9.0 0.00 0.00 0.00 81 1011.5
20260506175004 66 203 3.0 8.0 0.00 0.00 0.00 81 1011.4
20260506174905 66 203 3.0 8.0 0.00 0.00 0.00 81 1011.4
20260506174808 66 204 3.0 8.0 0.00 0.00 0.00 81 1011.4
20260506174705 66 202 3.0 8.0 0.00 0.00 0.00 81 1011.3
20260506174605 66 200 3.0 8.0 0.00 0.00 0.00 81 1011.3
20260506174505 66 202 3.0 8.0 0.00 0.00 0.00 81 1011.3
20260506174404 66 201 3.0 8.0 0.00 0.00 0.00 81 1011.3
20260506174304 66 200 3.0 8.0 0.00 0.00 0.00 80 1011.3
20260506174204 66 206 3.0 8.0 0.00 0.00 0.00 80 1011.3
20260506174104 66 208 3.0 8.0 0.00 0.00 0.00 80 1011.4
20260506174004 66 206 3.0 8.0 0.00 0.00 0.00 80 1011.4
20260506173904 66 203 3.0 8.0 0.00 0.00 0.00 80 1011.4
20260506173804 66 200 3.0 8.0 0.00 0.00 0.00 80 1011.4
20260506173704 66 199 3.0 9.0 0.00 0.00 0.00 80 1011.4
20260506173604 66 199 3.0 12.0 0.00 0.00 0.00 80 1011.4
20260506173506 66 200 4.0 12.0 0.00 0.00 0.00 80 1011.4
20260506173405 66 201 4.0 12.0 0.00 0.00 0.00 80 1011.4
20260506173313 66 199 4.0 12.0 0.00 0.00 0.00 80 1011.4
20260506173206 66 197 4.0 12.0 0.00 0.00 0.00 80 1011.5
20260506173105 66 197 4.0 12.0 0.00 0.00 0.00 80 1011.4
20260506173005 66 196 4.0 12.0 0.00 0.00 0.00 80 1011.4
20260506172904 66 196 4.0 12.0 0.00 0.00 0.00 80 1011.4
20260506172805 66 197 4.0 12.0 0.00 0.00 0.00 80 1011.5
20260506172704 66 199 4.0 12.0 0.00 0.00 0.00 80 1011.5
20260506172605 66 199 4.0 8.0 0.00 0.00 0.00 80 1011.5
20260506172505 66 199 4.0 11.0 0.00 0.00 0.00 80 1011.5
20260506172404 66 197 4.0 11.0 0.00 0.00 0.00 80 1011.5
20260506172306 66 198 4.0 11.0 0.00 0.00 0.00 80 1011.5
20260506172204 66 196 4.0 11.0 0.00 0.00 0.00 80 1011.5
20260506172104 66 193 4.0 11.0 0.00 0.00 0.00 80 1011.5
20260506172006 66 193 4.0 11.0 0.00 0.00 0.00 80 1011.5
20260506171905 66 195 4.0 11.0 0.00 0.00 0.00 80 1011.6
20260506171805 66 196 3.0 11.0 0.00 0.00 0.00 80 1011.5
20260506171705 66 196 3.0 11.0 0.00 0.00 0.00 80 1011.5
20260506171606 66 197 3.0 11.0 0.00 0.00 0.00 80 1011.6
20260506171504 66 196 3.0 9.0 0.00 0.00 0.00 80 1011.6
20260506171405 66 196 3.0 9.0 0.00 0.00 0.00 80 1011.6
20260506171304 66 198 3.0 9.0 0.00 0.00 0.00 80 1011.6
20260506171204 66 202 3.0 9.0 0.00 0.00 0.00 80 1011.6
20260506171104 66 205 4.0 9.0 0.00 0.00 0.00 80 1011.6
20260506171005 66 206 4.0 7.0 0.00 0.00 0.00 80 1011.6
20260506170905 66 206 4.0 8.0 0.00 0.00 0.00 79 1011.6
20260506170805 66 208 4.0 8.0 0.00 0.00 0.00 79 1011.7
20260506170704 66 208 4.0 10.0 0.00 0.00 0.00 79 1011.7
20260506170604 66 206 4.0 10.0 0.00 0.00 0.00 79 1011.7
20260506170509 66 205 4.0 10.0 0.00 0.00 0.00 79 1011.7
20260506170405 66 208 4.0 10.0 0.00 0.00 0.00 79 1011.7
20260506170304 66 209 4.0 10.0 0.00 0.00 0.00 79 1011.7
20260506170204 66 209 4.0 10.0 0.00 0.00 0.00 79 1011.7
20260506170106 66 212 4.0 10.0 0.00 0.00 0.00 79 1011.7
20260506170005 66 210 4.0 10.0 0.00 0.00 0.00 79 1011.7
20260506165904 67 212 4.0 10.0 0.00 0.00 0.00 79 1011.7
20260506165804 67 211 4.0 10.0 0.00 0.00 0.00 79 1011.7
20260506165704 67 210 4.0 10.0 0.00 0.00 0.00 79 1011.7
20260506165604 67 207 4.0 10.0 0.00 0.00 0.00 79 1011.7
20260506165505 67 210 4.0 10.0 0.00 0.00 0.00 79 1011.7
20260506165404 67 208 4.0 10.0 0.00 0.00 0.00 79 1011.7
20260506165305 67 206 4.0 10.0 0.00 0.00 0.00 79 1011.7
20260506165205 67 203 4.0 10.0 0.00 0.00 0.00 79 1011.7
20260506165104 67 200 4.0 10.0 0.00 0.00 0.00 79 1011.7
20260506165005 67 205 4.0 10.0 0.00 0.00 0.00 79 1011.7
20260506164904 67 201 4.0 11.0 0.00 0.00 0.00 79 1011.7
20260506164805 67 202 4.0 11.0 0.00 0.00 0.00 79 1011.7
20260506164706 67 202 4.0 11.0 0.00 0.00 0.00 79 1011.7
20260506164605 67 204 4.0 11.0 0.00 0.00 0.00 79 1011.7
20260506164504 67 201 4.0 11.0 0.00 0.00 0.00 79 1011.7
20260506164404 67 203 4.0 11.0 0.00 0.00 0.00 79 1011.6
20260506164304 67 203 4.0 11.0 0.00 0.00 0.00 79 1011.6
20260506164204 67 205 4.0 11.0 0.00 0.00 0.00 79 1011.7
20260506164104 67 205 4.0 11.0 0.00 0.00 0.00 79 1011.7
20260506164006 67 205 4.0 11.0 0.00 0.00 0.00 79 1011.8
20260506163904 67 207 4.0 11.0 0.00 0.00 0.00 79 1011.8
20260506163804 67 205 4.0 11.0 0.00 0.00 0.00 79 1011.8
20260506163704 67 206 4.0 11.0 0.00 0.00 0.00 78 1011.8
20260506163604 67 204 4.0 11.0 0.00 0.00 0.00 78 1011.8
20260506163503 67 207 4.0 11.0 0.00 0.00 0.00 78 1011.7
20260506163406 67 206 4.0 11.0 0.00 0.00 0.00 78 1011.7
20260506163306 67 208 5.0 11.0 0.00 0.00 0.00 78 1011.7
20260506163205 67 207 5.0 11.0 0.00 0.00 0.00 78 1011.7
20260506163105 67 207 5.0 11.0 0.00 0.00 0.00 78 1011.7
20260506163004 67 207 5.0 11.0 0.00 0.00 0.00 78 1011.7
20260506162904 67 206 5.0 9.0 0.00 0.00 0.00 78 1011.7
20260506162804 67 207 5.0 9.0 0.00 0.00 0.00 78 1011.7
20260506162704 67 205 5.0 9.0 0.00 0.00 0.00 78 1011.7
20260506162604 67 205 5.0 9.0 0.00 0.00 0.00 78 1011.7
20260506162504 67 204 5.0 9.0 0.00 0.00 0.00 78 1011.7
20260506162404 67 205 5.0 9.0 0.00 0.00 0.00 78 1011.7
20260506162307 67 205 5.0 9.0 0.00 0.00 0.00 78 1011.7
20260506162205 67 205 5.0 9.0 0.00 0.00 0.00 78 1011.7
20260506162105 67 204 5.0 9.0 0.00 0.00 0.00 78 1011.7
20260506162005 68 205 5.0 9.0 0.00 0.00 0.00 78 1011.7
20260506161905 67 207 5.0 9.0 0.00 0.00 0.00 78 1011.7
20260506161806 67 207 5.0 10.0 0.00 0.00 0.00 78 1011.7
20260506161706 68 209 5.0 10.0 0.00 0.00 0.00 78 1011.9
20260506161610 68 210 4.0 10.0 0.00 0.00 0.00 78 1011.8
20260506161505 68 210 4.0 10.0 0.00 0.00 0.00 78 1011.8
20260506161405 68 209 4.0 10.0 0.00 0.00 0.00 78 1011.9
20260506161305 68 209 4.0 10.0 0.00 0.00 0.00 77 1011.9
20260506161205 68 209 4.0 10.0 0.00 0.00 0.00 77 1012.0
20260506161105 68 210 4.0 10.0 0.00 0.00 0.00 77 1012.0
20260506161005 68 210 4.0 10.0 0.00 0.00 0.00 77 1012.0
20260506160904 68 207 4.0 10.0 0.00 0.00 0.00 78 1012.0
20260506160805 68 209 5.0 10.0 0.00 0.00 0.00 78 1012.1
20260506160705 68 207 5.0 10.0 0.00 0.00 0.00 77 1012.1
20260506160604 68 208 5.0 10.0 0.00 0.00 0.00 78 1012.1
20260506160506 68 207 5.0 10.0 0.00 0.00 0.00 78 1012.1
20260506160405 68 208 5.0 10.0 0.00 0.00 0.00 78 1012.0
20260506160306 68 205 5.0 9.0 0.00 0.00 0.00 78 1012.1
20260506160206 68 207 5.0 9.0 0.00 0.00 0.00 77 1012.1
20260506160108 68 206 5.0 9.0 0.00 0.00 0.00 77 1012.1
20260506160005 68 208 5.0 12.0 0.00 0.00 0.00 77 1012.1
20260506155905 68 209 5.0 12.0 0.00 0.00 0.00 77 1012.1
20260506155805 68 207 5.0 13.0 0.00 0.00 0.00 78 1012.0
20260506155704 68 209 5.0 13.0 0.00 0.00 0.00 78 1012.0
20260506155604 67 208 5.0 13.0 0.00 0.00 0.00 78 1012.1
20260506155505 67 209 5.0 13.0 0.00 0.00 0.00 78 1012.1
20260506155405 67 209 5.0 13.0 0.00 0.00 0.00 78 1012.1
20260506155306 67 211 5.0 13.0 0.00 0.00 0.00 78 1012.1
20260506155205 67 208 5.0 13.0 0.00 0.00 0.00 78 1012.1
20260506155106 67 207 5.0 13.0 0.00 0.00 0.00 78 1012.0
20260506155006 67 205 5.0 13.0 0.00 0.00 0.00 78 1012.1
20260506154906 67 204 5.0 13.0 0.00 0.00 0.00 78 1012.1
20260506154807 67 203 5.0 11.0 0.00 0.00 0.00 78 1012.1
20260506154706 67 201 5.0 11.0 0.00 0.00 0.00 78 1012.1
20260506154605 67 204 5.0 11.0 0.00 0.00 0.00 78 1012.2
20260506154505 67 204 5.0 11.0 0.00 0.00 0.00 78 1012.1
20260506154404 67 203 5.0 11.0 0.00 0.00 0.00 78 1012.1
20260506154305 67 204 5.0 11.0 0.00 0.00 0.00 78 1012.1
20260506154205 67 204 5.0 11.0 0.00 0.00 0.00 78 1012.1
20260506154104 67 204 6.0 11.0 0.00 0.00 0.00 78 1012.1
20260506154005 67 206 6.0 16.0 0.00 0.00 0.00 78 1012.1
20260506153905 67 205 6.0 16.0 0.00 0.00 0.00 77 1012.1
20260506153805 67 208 6.0 16.0 0.00 0.00 0.00 78 1012.2
20260506153705 67 209 6.0 16.0 0.00 0.00 0.00 78 1012.2
20260506153607 67 205 6.0 16.0 0.00 0.00 0.00 78 1012.2
20260506153507 67 204 6.0 16.0 0.00 0.00 0.00 78 1012.2
20260506153404 67 206 6.0 16.0 0.00 0.00 0.00 78 1012.2
20260506153306 68 202 6.0 16.0 0.00 0.00 0.00 78 1012.3
20260506153205 68 201 6.0 16.0 0.00 0.00 0.00 77 1012.1
20260506153108 68 202 6.0 16.0 0.00 0.00 0.00 77 1012.1
20260506153004 68 200 6.0 15.0 0.00 0.00 0.00 77 1012.2
20260506152904 68 199 6.0 13.0 0.00 0.00 0.00 77 1012.2
20260506152804 68 199 6.0 13.0 0.00 0.00 0.00 77 1012.2
20260506152704 68 199 6.0 13.0 0.00 0.00 0.00 77 1012.2
20260506152604 68 200 6.0 13.0 0.00 0.00 0.00 77 1012.2
20260506152505 68 200 6.0 13.0 0.00 0.00 0.00 77 1012.2
20260506152404 68 199 6.0 13.0 0.00 0.00 0.00 77 1012.2
20260506152306 68 204 6.0 13.0 0.00 0.00 0.00 77 1012.3
20260506152205 68 206 6.0 13.0 0.00 0.00 0.00 77 1012.2
20260506152105 68 208 6.0 12.0 0.00 0.00 0.00 77 1012.2
20260506152006 68 209 6.0 12.0 0.00 0.00 0.00 77 1012.3
20260506151905 68 211 6.0 12.0 0.00 0.00 0.00 76 1012.2
20260506151806 68 211 6.0 12.0 0.00 0.00 0.00 76 1012.2
20260506151706 68 210 6.0 13.0 0.00 0.00 0.00 76 1012.2
20260506151606 68 212 6.0 13.0 0.00 0.00 0.00 76 1012.2
20260506151505 68 215 7.0 13.0 0.00 0.00 0.00 76 1012.2
20260506151405 68 214 7.0 13.0 0.00 0.00 0.00 76 1012.1
20260506151304 68 212 7.0 13.0 0.00 0.00 0.00 76 1012.1
20260506151205 68 211 7.0 13.0 0.00 0.00 0.00 76 1012.1
20260506151105 68 209 7.0 14.0 0.00 0.00 0.00 76 1012.1
20260506151004 68 210 7.0 14.0 0.00 0.00 0.00 76 1012.1
20260506150904 68 207 7.0 14.0 0.00 0.00 0.00 76 1012.1
20260506150804 68 209 6.0 14.0 0.00 0.00 0.00 76 1012.1
20260506150704 68 209 6.0 14.0 0.00 0.00 0.00 76 1012.0
20260506150604 68 206 6.0 14.0 0.00 0.00 0.00 75 1012.1
20260506150506 68 206 6.0 14.0 0.00 0.00 0.00 75 1012.1
20260506150405 69 206 6.0 14.0 0.00 0.00 0.00 75 1012.1
20260506150306 69 206 6.0 14.0 0.00 0.00 0.00 75 1012.1
20260506150207 69 206 6.0 14.0 0.00 0.00 0.00 75 1012.1
20260506150105 69 208 6.0 14.0 0.00 0.00 0.00 75 1012.1
20260506150004 69 208 6.0 14.0 0.00 0.00 0.00 75 1012.1
20260506145904 69 209 6.0 14.0 0.00 0.00 0.00 75 1012.1
20260506145804 69 206 6.0 14.0 0.00 0.00 0.00 75 1012.1
20260506145704 69 205 6.0 14.0 0.00 0.00 0.00 75 1012.2
20260506145604 69 208 6.0 14.0 0.00 0.00 0.00 75 1012.1
20260506145504 69 204 6.0 14.0 0.00 0.00 0.00 75 1012.1
20260506145404 69 205 6.0 15.0 0.00 0.00 0.00 75 1012.1
20260506145306 69 203 6.0 15.0 0.00 0.00 0.00 75 1012.1
20260506145204 69 206 6.0 15.0 0.00 0.00 0.00 75 1012.1
20260506145106 69 204 6.0 15.0 0.00 0.00 0.00 75 1012.1
20260506145008 69 204 6.0 15.0 0.00 0.00 0.00 75 1012.1
20260506144906 69 205 6.0 15.0 0.00 0.00 0.00 75 1012.2
20260506144806 69 206 6.0 15.0 0.00 0.00 0.00 75 1012.1
20260506144705 69 208 6.0 15.0 0.00 0.00 0.00 75 1012.1
20260506144605 69 205 6.0 15.0 0.00 0.00 0.00 74 1012.1
20260506144505 69 204 6.0 15.0 0.00 0.00 0.00 74 1012.1
20260506144404 69 204 6.0 14.0 0.00 0.00 0.00 74 1012.2
20260506144304 69 208 6.0 15.0 0.00 0.00 0.00 74 1012.2
20260506144204 69 206 6.0 15.0 0.00 0.00 0.00 74 1012.2
20260506144104 69 206 7.0 17.0 0.00 0.00 0.00 74 1012.0
20260506144005 69 203 7.0 17.0 0.00 0.00 0.00 73 1012.0
20260506143904 69 202 7.0 17.0 0.00 0.00 0.00 73 1012.1
20260506143804 70 204 7.0 17.0 0.00 0.00 0.00 73 1011.9
20260506143704 70 205 7.0 17.0 0.00 0.00 0.00 73 1011.9
20260506143606 70 211 7.0 17.0 0.00 0.00 0.00 73 1011.9
20260506143505 70 211 7.0 17.0 0.00 0.00 0.00 73 1011.9
20260506143404 70 213 7.0 17.0 0.00 0.00 0.00 73 1011.8
20260506143305 70 210 7.0 17.0 0.00 0.00 0.00 73 1011.7
20260506143205 70 212 7.0 17.0 0.00 0.00 0.00 73 1011.7
20260506143105 70 211 7.0 16.0 0.00 0.00 0.00 73 1011.7
20260506143004 70 211 7.0 16.0 0.00 0.00 0.00 73 1011.7
20260506142904 70 211 7.0 16.0 0.00 0.00 0.00 72 1011.7
20260506142804 70 211 7.0 16.0 0.00 0.00 0.00 72 1011.7
20260506142704 70 210 7.0 16.0 0.00 0.00 0.00 72 1011.7
20260506142604 70 207 7.0 16.0 0.00 0.00 0.00 72 1011.6
20260506142506 70 209 7.0 16.0 0.00 0.00 0.00 72 1011.6
20260506142404 70 209 7.0 16.0 0.00 0.00 0.00 71 1011.6
20260506142306 70 210 7.0 16.0 0.00 0.00 0.00 71 1011.7
20260506142204 71 208 7.0 16.0 0.00 0.00 0.00 71 1011.7
20260506142104 71 207 7.0 14.0 0.00 0.00 0.00 71 1011.6
20260506142006 71 207 7.0 14.0 0.00 0.00 0.00 71 1011.6
20260506141905 71 208 7.0 14.0 0.00 0.00 0.00 71 1011.6
20260506141804 71 205 7.0 14.0 0.00 0.00 0.00 71 1011.6
20260506141704 71 203 7.0 15.0 0.00 0.00 0.00 71 1011.7
20260506141605 71 202 7.0 15.0 0.00 0.00 0.00 71 1011.7
20260506141504 71 202 7.0 15.0 0.00 0.00 0.00 71 1011.5
20260506141406 71 203 7.0 15.0 0.00 0.00 0.00 71 1011.5
20260506141304 71 202 7.0 15.0 0.00 0.00 0.00 71 1011.6
20260506141205 71 203 7.0 15.0 0.00 0.00 0.00 71 1011.5
20260506141104 71 206 7.0 15.0 0.00 0.00 0.00 71 1011.5
20260506141004 71 210 7.0 15.0 0.00 0.00 0.00 71 1011.7
20260506140904 71 208 7.0 15.0 0.00 0.00 0.00 71 1011.7
20260506140804 71 209 7.0 15.0 0.00 0.00 0.00 71 1011.6
20260506140704 71 208 7.0 15.0 0.00 0.00 0.00 71 1011.7
20260506140604 71 208 7.0 15.0 0.00 0.00 0.00 71 1011.7
20260506140506 71 204 7.0 16.0 0.00 0.00 0.00 71 1011.7
20260506140405 71 200 7.0 16.0 0.00 0.00 0.00 71 1011.7
20260506140303 71 201 6.0 16.0 0.00 0.00 0.00 71 1011.7
20260506140205 71 200 6.0 16.0 0.00 0.00 0.00 71 1011.7
20260506140105 71 199 6.0 16.0 0.00 0.00 0.00 71 1011.7
20260506140005 71 198 6.0 16.0 0.00 0.00 0.00 71 1011.8
20260506135905 71 197 6.0 16.0 0.00 0.00 0.00 71 1011.8
20260506135806 71 196 6.0 16.0 0.00 0.00 0.00 71 1011.8
20260506135705 71 196 6.0 16.0 0.00 0.00 0.00 71 1011.8
20260506135605 71 197 6.0 16.0 0.00 0.00 0.00 71 1011.8
20260506135505 71 202 6.0 13.0 0.00 0.00 0.00 72 1011.8
20260506135404 71 202 6.0 13.0 0.00 0.00 0.00 72 1011.8
20260506135306 70 203 6.0 13.0 0.00 0.00 0.00 72 1011.8
20260506135204 70 203 6.0 13.0 0.00 0.00 0.00 72 1011.7
20260506135107 70 203 6.0 13.0 0.00 0.00 0.00 72 1011.7
20260506135007 70 202 6.0 13.0 0.00 0.00 0.00 72 1011.8
20260506134905 70 205 6.0 13.0 0.00 0.00 0.00 72 1011.9
20260506134808 70 204 6.0 13.0 0.00 0.00 0.00 72 1011.9
20260506134705 70 205 6.0 13.0 0.00 0.00 0.00 72 1011.8
20260506134608 70 204 6.0 12.0 0.00 0.00 0.00 72 1011.8
20260506134505 70 201 6.0 12.0 0.00 0.00 0.00 72 1011.7
20260506134404 70 203 6.0 13.0 0.00 0.00 0.00 72 1011.7
20260506134304 70 201 6.0 13.0 0.00 0.00 0.00 72 1011.7
20260506134205 70 201 6.0 13.0 0.00 0.00 0.00 72 1011.8
20260506134105 70 198 6.0 13.0 0.00 0.00 0.00 72 1011.7
20260506134005 70 200 6.0 13.0 0.00 0.00 0.00 72 1011.7
20260506133905 70 197 7.0 13.0 0.00 0.00 0.00 72 1011.8
20260506133804 70 198 7.0 13.0 0.00 0.00 0.00 72 1011.8
20260506133705 70 198 7.0 13.0 0.00 0.00 0.00 72 1011.8
20260506133605 70 199 7.0 13.0 0.00 0.00 0.00 73 1011.8
20260506133506 70 200 7.0 13.0 0.00 0.00 0.00 73 1011.8
20260506133411 70 197 7.0 17.0 0.00 0.00 0.00 73 1011.9
20260506133305 70 197 8.0 17.0 0.00 0.00 0.00 73 1011.9
20260506133206 70 200 8.0 17.0 0.00 0.00 0.00 73 1012.0
20260506133109 70 201 8.0 17.0 0.00 0.00 0.00 73 1012.1
20260506133005 70 199 8.0 17.0 0.00 0.00 0.00 74 1012.1
20260506132904 70 201 8.0 17.0 0.00 0.00 0.00 74 1012.0
20260506132804 70 200 8.0 17.0 0.00 0.00 0.00 74 1012.1
20260506132704 69 201 8.0 17.0 0.00 0.00 0.00 74 1012.1
20260506132604 69 200 8.0 17.0 0.00 0.00 0.00 74 1012.0
20260506132504 69 201 8.0 17.0 0.00 0.00 0.00 74 1012.0
20260506132404 69 202 8.0 16.0 0.00 0.00 0.00 74 1012.0
20260506132307 69 202 8.0 15.0 0.00 0.00 0.00 74 1012.1
20260506132205 69 201 8.0 15.0 0.00 0.00 0.00 74 1012.1
20260506132105 69 202 8.0 15.0 0.00 0.00 0.00 73 1012.1
20260506132005 69 202 8.0 17.0 0.00 0.00 0.00 73 1012.1
20260506131907 69 201 8.0 17.0 0.00 0.00 0.00 73 1012.1
20260506131805 69 201 8.0 17.0 0.00 0.00 0.00 74 1012.2
20260506131706 69 202 8.0 17.0 0.00 0.00 0.00 74 1012.2
20260506131607 69 201 7.0 17.0 0.00 0.00 0.00 74 1012.1
20260506131505 69 200 7.0 17.0 0.00 0.00 0.00 74 1012.1
20260506131405 69 200 7.0 17.0 0.00 0.00 0.00 73 1012.2
20260506131305 69 199 7.0 17.0 0.00 0.00 0.00 73 1012.1
20260506131204 69 199 7.0 17.0 0.00 0.00 0.00 73 1012.1
20260506131105 70 199 7.0 17.0 0.00 0.00 0.00 73 1012.2
20260506131005 70 200 7.0 16.0 0.00 0.00 0.00 73 1012.2
20260506130904 70 200 7.0 16.0 0.00 0.00 0.00 73 1012.2
20260506130805 70 202 7.0 16.0 0.00 0.00 0.00 73 1012.3
20260506130705 70 202 7.0 16.0 0.00 0.00 0.00 72 1012.3
20260506130608 70 203 7.0 15.0 0.00 0.00 0.00 72 1012.3
20260506130506 70 204 7.0 15.0 0.00 0.00 0.00 72 1012.4
20260506130407 70 206 7.0 13.0 0.00 0.00 0.00 72 1012.4
20260506130304 70 207 7.0 15.0 0.00 0.00 0.00 72 1012.3
20260506130205 70 209 7.0 15.0 0.00 0.00 0.00 72 1012.3
20260506130105 70 211 7.0 15.0 0.00 0.00 0.00 72 1012.4
20260506130006 70 211 7.0 15.0 0.00 0.00 0.00 72 1012.4
20260506125904 70 211 6.0 15.0 0.00 0.00 0.00 72 1012.4
20260506125804 70 209 6.0 15.0 0.00 0.00 0.00 72 1012.4
20260506125705 70 207 6.0 16.0 0.00 0.00 0.00 72 1012.4
20260506125604 70 209 6.0 16.0 0.00 0.00 0.00 73 1012.4
20260506125505 70 209 6.0 16.0 0.00 0.00 0.00 73 1012.4
20260506125404 70 208 6.0 16.0 0.00 0.00 0.00 73 1012.4
20260506125305 70 210 6.0 16.0 0.00 0.00 0.00 73 1012.5
20260506125204 70 206 6.0 16.0 0.00 0.00 0.00 73 1012.5
20260506125106 70 205 6.0 16.0 0.00 0.00 0.00 72 1012.5
20260506125005 70 200 6.0 16.0 0.00 0.00 0.00 72 1012.4
20260506124904 70 200 7.0 16.0 0.00 0.00 0.00 72 1012.4
20260506124807 70 198 7.0 16.0 0.00 0.00 0.00 72 1012.5
20260506124705 70 199 7.0 16.0 0.00 0.00 0.00 72 1012.5
20260506124606 70 197 7.0 16.0 0.00 0.00 0.00 72 1012.5
20260506124504 70 199 7.0 16.0 0.00 0.00 0.00 72 1012.5
20260506124404 70 200 7.0 16.0 0.00 0.00 0.00 72 1012.5
20260506124304 70 197 7.0 16.0 0.00 0.00 0.00 72 1012.5
20260506124204 70 198 7.0 16.0 0.00 0.00 0.00 72 1012.4
20260506124104 70 196 7.0 16.0 0.00 0.00 0.00 72 1012.4
20260506124005 70 195 7.0 15.0 0.00 0.00 0.00 72 1012.4
20260506123904 70 197 7.0 15.0 0.00 0.00 0.00 72 1012.4
20260506123804 70 199 7.0 15.0 0.00 0.00 0.00 71 1012.4
20260506123704 71 200 7.0 14.0 0.00 0.00 0.00 71 1012.4
20260506123604 71 199 7.0 14.0 0.00 0.00 0.00 71 1012.4
20260506123505 71 200 7.0 17.0 0.00 0.00 0.00 71 1012.4
20260506123405 71 198 7.0 17.0 0.00 0.00 0.00 71 1012.4
20260506123306 71 200 7.0 17.0 0.00 0.00 0.00 71 1012.4
20260506123206 71 201 7.0 17.0 0.00 0.00 0.00 71 1012.4
20260506123104 71 201 7.0 17.0 0.00 0.00 0.00 71 1012.4
20260506123005 71 204 7.0 17.0 0.00 0.00 0.00 71 1012.5
20260506122904 71 204 7.0 17.0 0.00 0.00 0.00 71 1012.4
20260506122804 71 204 7.0 17.0 0.00 0.00 0.00 70 1012.4
20260506122705 71 204 7.0 17.0 0.00 0.00 0.00 70 1012.4
20260506122604 71 204 7.0 17.0 0.00 0.00 0.00 71 1012.4
20260506122505 71 202 7.0 16.0 0.00 0.00 0.00 71 1012.4
20260506122404 71 203 7.0 17.0 0.00 0.00 0.00 71 1012.4
20260506122306 71 203 7.0 17.0 0.00 0.00 0.00 70 1012.4
20260506122204 71 201 7.0 17.0 0.00 0.00 0.00 71 1012.4
20260506122105 71 200 7.0 17.0 0.00 0.00 0.00 71 1012.3
20260506122006 71 201 7.0 17.0 0.00 0.00 0.00 71 1012.3
20260506121905 70 200 7.0 17.0 0.00 0.00 0.00 71 1012.5
20260506121804 70 200 8.0 17.0 0.00 0.00 0.00 71 1012.5
20260506121704 70 200 8.0 17.0 0.00 0.00 0.00 71 1012.4
20260506121605 70 199 8.0 17.0 0.00 0.00 0.00 71 1012.5
20260506121504 70 199 7.0 17.0 0.00 0.00 0.00 71 1012.5
20260506121404 70 200 7.0 16.0 0.00 0.00 0.00 71 1012.5
20260506121304 70 200 7.0 16.0 0.00 0.00 0.00 71 1012.5
20260506121204 70 201 7.0 15.0 0.00 0.00 0.00 71 1012.4
20260506121104 70 202 7.0 15.0 0.00 0.00 0.00 71 1012.5
20260506121005 70 200 7.0 15.0 0.00 0.00 0.00 71 1012.5
20260506120904 70 197 7.0 16.0 0.00 0.00 0.00 71 1012.5
20260506120804 70 197 7.0 16.0 0.00 0.00 0.00 71 1012.5
20260506120704 70 196 7.0 16.0 0.00 0.00 0.00 71 1012.6
20260506120608 70 200 7.0 16.0 0.00 0.00 0.00 71 1012.6
20260506120504 70 198 6.0 16.0 0.00 0.00 0.00 70 1012.6
20260506120405 71 194 6.0 16.0 0.00 0.00 0.00 70 1012.7
20260506120306 71 192 6.0 16.0 0.00 0.00 0.00 70 1012.6
20260506120206 71 191 6.0 16.0 0.00 0.00 0.00 70 1012.6
20260506120104 71 189 6.0 16.0 0.00 0.00 0.00 70 1012.6
20260506120004 71 189 6.0 16.0 0.00 0.00 0.00 69 1012.6
20260506115904 71 191 6.0 14.0 0.00 0.00 0.00 70 1012.6
20260506115804 71 188 6.0 14.0 0.00 0.00 0.00 70 1012.6
20260506115704 71 188 6.0 14.0 0.00 0.00 0.00 70 1012.6
20260506115604 71 192 6.0 14.0 0.00 0.00 0.00 70 1012.6
20260506115505 71 191 6.0 14.0 0.00 0.00 0.00 70 1012.6
20260506115405 71 193 6.0 15.0 0.00 0.00 0.00 70 1012.7
20260506115307 71 196 6.0 15.0 0.00 0.00 0.00 70 1012.7
20260506115204 71 195 6.0 15.0 0.00 0.00 0.00 70 1012.7
20260506115104 71 196 6.0 15.0 0.00 0.00 0.00 70 1012.8
20260506115004 71 195 6.0 15.0 0.00 0.00 0.00 71 1012.7
20260506114908 71 195 6.0 15.0 0.00 0.00 0.00 71 1012.7
20260506114806 71 196 6.0 15.0 0.00 0.00 0.00 71 1012.7
20260506114705 71 194 6.0 15.0 0.00 0.00 0.00 71 1012.7
20260506114605 71 188 6.0 15.0 0.00 0.00 0.00 71 1012.8
20260506114504 71 192 7.0 15.0 0.00 0.00 0.00 71 1012.7
20260506114405 71 191 7.0 13.0 0.00 0.00 0.00 71 1012.7
20260506114304 70 189 7.0 13.0 0.00 0.00 0.00 71 1012.8
20260506114204 70 192 7.0 13.0 0.00 0.00 0.00 71 1012.8
20260506114104 70 193 7.0 13.0 0.00 0.00 0.00 71 1012.8
20260506114004 70 190 7.0 13.0 0.00 0.00 0.00 71 1012.9
20260506113904 70 191 7.0 14.0 0.00 0.00 0.00 71 1012.9
20260506113804 70 189 7.0 15.0 0.00 0.00 0.00 71 1012.9
20260506113704 70 193 7.0 15.0 0.00 0.00 0.00 71 1012.9
20260506113603 70 194 7.0 15.0 0.00 0.00 0.00 70 1012.8
20260506113504 70 195 7.0 15.0 0.00 0.00 0.00 70 1012.9
20260506113404 70 194 7.0 15.0 0.00 0.00 0.00 70 1012.9
20260506113304 71 195 7.0 15.0 0.00 0.00 0.00 70 1012.9
20260506113205 71 193 8.0 15.0 0.00 0.00 0.00 70 1012.9
20260506113110 71 193 8.0 15.0 0.00 0.00 0.00 70 1012.9
20260506113005 71 195 8.0 15.0 0.00 0.00 0.00 70 1012.9
20260506112905 70 196 8.0 15.0 0.00 0.00 0.00 71 1012.9
20260506112805 70 197 8.0 15.0 0.00 0.00 0.00 71 1012.9
20260506112705 70 197 8.0 15.0 0.00 0.00 0.00 71 1012.9
20260506112605 70 197 8.0 15.0 0.00 0.00 0.00 71 1012.9
20260506112506 70 197 9.0 15.0 0.00 0.00 0.00 71 1012.9
20260506112405 70 197 9.0 16.0 0.00 0.00 0.00 72 1012.9
20260506112306 70 198 9.0 16.0 0.00 0.00 0.00 72 1012.9
20260506112205 70 198 9.0 16.0 0.00 0.00 0.00 72 1013.0
20260506112106 70 198 9.0 16.0 0.00 0.00 0.00 72 1013.0
20260506112006 70 198 9.0 16.0 0.00 0.00 0.00 72 1012.8
20260506111905 70 198 8.0 16.0 0.00 0.00 0.00 72 1012.8
20260506111807 70 198 8.0 16.0 0.00 0.00 0.00 73 1012.8
20260506111705 70 197 8.0 16.0 0.00 0.00 0.00 73 1012.8
20260506111605 69 196 8.0 16.0 0.00 0.00 0.00 73 1012.8
20260506111505 69 195 8.0 16.0 0.00 0.00 0.00 73 1012.9
20260506111405 69 196 8.0 16.0 0.00 0.00 0.00 73 1012.8
20260506111305 69 194 8.0 16.0 0.00 0.00 0.00 73 1012.8
20260506111205 69 195 8.0 16.0 0.00 0.00 0.00 73 1012.9
20260506111105 69 196 7.0 16.0 0.00 0.00 0.00 73 1012.9
20260506111005 69 198 7.0 16.0 0.00 0.00 0.00 73 1012.9
20260506110904 69 195 7.0 16.0 0.00 0.00 0.00 73 1013.0
20260506110805 69 194 7.0 16.0 0.00 0.00 0.00 73 1013.0
20260506110705 70 193 7.0 16.0 0.00 0.00 0.00 73 1013.1
20260506110609 70 194 7.0 15.0 0.00 0.00 0.00 72 1013.1
20260506110505 70 195 7.0 15.0 0.00 0.00 0.00 72 1013.1
20260506110406 70 194 7.0 15.0 0.00 0.00 0.00 72 1013.1
20260506110312 70 194 7.0 21.0 0.00 0.00 0.00 72 1013.1
20260506110206 70 194 7.0 21.0 0.00 0.00 0.00 71 1013.1
20260506110104 70 192 7.0 21.0 0.00 0.00 0.00 72 1013.1
20260506110006 70 190 7.0 21.0 0.00 0.00 0.00 72 1013.1
20260506105904 70 193 7.0 21.0 0.00 0.00 0.00 72 1013.1
20260506105804 70 195 7.0 21.0 0.00 0.00 0.00 72 1013.1
20260506105705 71 196 7.0 21.0 0.00 0.00 0.00 72 1013.1
20260506105605 71 195 6.0 21.0 0.00 0.00 0.00 72 1013.0
20260506105505 71 193 6.0 21.0 0.00 0.00 0.00 72 1013.0
20260506105405 71 193 6.0 21.0 0.00 0.00 0.00 72 1013.0
20260506105305 71 193 6.0 14.0 0.00 0.00 0.00 72 1013.0
20260506105204 71 192 6.0 14.0 0.00 0.00 0.00 72 1013.0
20260506105104 71 194 6.0 14.0 0.00 0.00 0.00 72 1013.1
20260506105004 71 195 6.0 14.0 0.00 0.00 0.00 72 1013.1
20260506104906 71 196 6.0 14.0 0.00 0.00 0.00 72 1013.0
20260506104805 71 194 6.0 13.0 0.00 0.00 0.00 73 1013.0
20260506104704 70 193 6.0 13.0 0.00 0.00 0.00 73 1013.0
20260506104605 70 195 6.0 13.0 0.00 0.00 0.00 73 1013.1
20260506104505 70 196 6.0 13.0 0.00 0.00 0.00 73 1013.1
20260506104405 70 197 6.0 13.0 0.00 0.00 0.00 73 1013.1
20260506104304 70 196 7.0 13.0 0.00 0.00 0.00 73 1013.0
20260506104206 70 200 7.0 13.0 0.00 0.00 0.00 73 1013.0
20260506104104 70 198 7.0 13.0 0.00 0.00 0.00 73 1013.1
20260506104005 70 198 7.0 15.0 0.00 0.00 0.00 74 1013.1
20260506103904 70 197 7.0 15.0 0.00 0.00 0.00 74 1013.0
20260506103805 70 199 8.0 15.0 0.00 0.00 0.00 74 1013.0
20260506103704 70 201 8.0 15.0 0.00 0.00 0.00 74 1013.0
20260506103605 70 203 8.0 16.0 0.00 0.00 0.00 74 1013.1
20260506103506 70 205 8.0 16.0 0.00 0.00 0.00 74 1013.1
20260506103405 70 204 8.0 16.0 0.00 0.00 0.00 74 1013.0
20260506103305 70 205 8.0 16.0 0.00 0.00 0.00 74 1013.1
20260506103205 70 207 9.0 16.0 0.00 0.00 0.00 74 1013.1
20260506103106 70 207 9.0 16.0 0.00 0.00 0.00 74 1013.1
20260506103004 70 207 9.0 16.0 0.00 0.00 0.00 74 1013.1
20260506102904 70 207 9.0 16.0 0.00 0.00 0.00 74 1013.0
20260506102804 70 208 8.0 16.0 0.00 0.00 0.00 74 1013.1
20260506102705 70 207 8.0 16.0 0.00 0.00 0.00 74 1013.1
20260506102604 70 206 8.0 16.0 0.00 0.00 0.00 74 1013.1
20260506102504 70 204 8.0 15.0 0.00 0.00 0.00 74 1013.1
20260506102404 70 206 8.0 15.0 0.00 0.00 0.00 74 1013.1
20260506102306 70 203 7.0 20.0 0.00 0.00 0.00 73 1013.1
20260506102204 70 200 7.0 20.0 0.00 0.00 0.00 73 1013.1
20260506102106 70 200 7.0 20.0 0.00 0.00 0.00 74 1013.0
20260506102005 70 198 7.0 20.0 0.00 0.00 0.00 74 1013.0
20260506101917 70 198 7.0 20.0 0.00 0.00 0.00 74 1013.0
20260506101805 69 197 7.0 20.0 0.00 0.00 0.00 74 1013.1
20260506101705 69 198 7.0 20.0 0.00 0.00 0.00 74 1013.1
20260506101607 69 198 7.0 20.0 0.00 0.00 0.00 74 1013.1
20260506101505 69 201 7.0 20.0 0.00 0.00 0.00 73 1013.1
20260506101404 69 202 7.0 20.0 0.00 0.00 0.00 73 1013.1
20260506101304 69 205 7.0 16.0 0.00 0.00 0.00 74 1013.1
20260506101205 69 205 7.0 16.0 0.00 0.00 0.00 74 1013.2
20260506101104 69 207 7.0 16.0 0.00 0.00 0.00 73 1013.2
20260506101005 69 209 7.0 16.0 0.00 0.00 0.00 74 1013.1
20260506100904 69 208 6.0 16.0 0.00 0.00 0.00 74 1013.1
20260506100805 69 206 6.0 16.0 0.00 0.00 0.00 73 1013.1
20260506100705 69 203 6.0 16.0 0.00 0.00 0.00 73 1013.2
20260506100605 69 202 6.0 16.0 0.00 0.00 0.00 73 1013.2
20260506100504 69 202 6.0 16.0 0.00 0.00 0.00 72 1013.1
20260506100306 70 199 5.0 14.0 0.00 0.00 0.00 72 1013.2
20260506100204 70 199 5.0 14.0 0.00 0.00 0.00 72 1013.1
20260506100106 70 199 5.0 14.0 0.00 0.00 0.00 72 1013.1
20260506100005 70 199 5.0 14.0 0.00 0.00 0.00 72 1013.1
20260506095904 70 199 5.0 13.0 0.00 0.00 0.00 72 1013.1
20260506095804 70 201 5.0 11.0 0.00 0.00 0.00 72 1013.2
20260506095705 70 203 5.0 11.0 0.00 0.00 0.00 72 1013.1
20260506095604 70 202 5.0 11.0 0.00 0.00 0.00 72 1013.1
20260506095505 70 199 5.0 12.0 0.00 0.00 0.00 72 1013.1
20260506095404 70 201 4.0 12.0 0.00 0.00 0.00 71 1013.1
20260506095305 70 200 4.0 12.0 0.00 0.00 0.00 72 1013.1
20260506095205 70 205 4.0 12.0 0.00 0.00 0.00 72 1013.1
20260506095103 70 201 4.0 12.0 0.00 0.00 0.00 72 1013.1
20260506095005 70 202 4.0 12.0 0.00 0.00 0.00 72 1013.1
20260506094904 70 202 4.0 12.0 0.00 0.00 0.00 72 1013.1
20260506094808 70 206 4.0 12.0 0.00 0.00 0.00 72 1013.1
20260506094706 70 204 4.0 12.0 0.00 0.00 0.00 72 1013.1
20260506094606 70 205 4.0 12.0 0.00 0.00 0.00 72 1013.1
20260506094504 69 208 5.0 11.0 0.00 0.00 0.00 72 1013.0
20260506094404 69 206 5.0 11.0 0.00 0.00 0.00 73 1013.2
20260506094305 69 208 5.0 11.0 0.00 0.00 0.00 73 1013.2
20260506094204 69 205 5.0 11.0 0.00 0.00 0.00 74 1013.1
20260506094104 69 205 5.0 11.0 0.00 0.00 0.00 74 1013.1
20260506094004 69 202 5.0 11.0 0.00 0.00 0.00 74 1013.1
20260506093903 69 202 5.0 12.0 0.00 0.00 0.00 74 1013.2